N8MS Weather Reports


Display with metric or nautical units.
time (UTC)temp
F
wind
direction
speed
MPH
gust
MPH
rain 1hr
in
rain 24hr
in
rain mn
in
humidity
%
barometer
mb
20260903193433 80 42 3.0 10.0 0.00 0.00 0.00 78 1014.8
20260903193326 80 32 3.0 10.0 0.00 0.00 0.00 79 1014.8
20260903193241 80 106 3.0 10.0 0.00 0.00 0.00 79 1014.9
20260903193203 79 27 3.0 10.0 0.00 0.00 0.00 79 1015.0
20260903193032 79 52 4.0 10.0 0.00 0.00 0.00 78 1014.9
20260903192944 79 26 5.0 10.0 0.00 0.00 0.00 78 1015.0
20260903192857 79 5 6.0 10.0 0.00 0.00 0.00 77 1015.1
20260903192726 79 24 7.0 10.0 0.00 0.00 0.00 78 1015.1
20260903192637 79 14 5.0 10.0 0.00 0.00 0.00 78 1015.2
20260903192549 79 13 5.0 9.0 0.00 0.00 0.00 79 1015.3
20260903192500 79 19 5.0 9.0 0.00 0.00 0.00 79 1015.3
20260903192331 79 34 5.0 9.0 0.00 0.00 0.00 78 1015.4
20260903192224 79 46 6.0 9.0 0.00 0.00 0.00 78 1015.5
20260903192121 79 29 6.0 9.0 0.00 0.00 0.00 78 1015.6
20260903192033 79 44 6.0 9.0 0.00 0.00 0.00 78 1015.5
20260903191945 79 12 4.0 9.0 0.00 0.00 0.00 79 1015.6
20260903191837 79 32 4.0 9.0 0.00 0.00 0.00 78 1015.5
20260903191749 79 9 4.0 9.0 0.00 0.00 0.00 78 1015.7
20260903191650 79 24 3.0 10.0 0.00 0.00 0.00 78 1015.7
20260903191522 79 17 5.0 10.0 0.00 0.00 0.00 78 1015.6
20260903191434 79 16 5.0 10.0 0.00 0.00 0.00 78 1015.6
20260903191326 79 338 6.0 10.0 0.00 0.00 0.00 78 1015.5
20260903191237 79 34 5.0 10.0 0.00 0.00 0.00 78 1015.6
20260903191151 79 28 5.0 10.0 0.00 0.00 0.00 78 1015.6
20260903191042 79 346 5.0 10.0 0.00 0.00 0.00 78 1015.7
20260903190933 79 360 7.0 10.0 0.00 0.00 0.00 78 1015.8
20260903190844 79 22 7.0 10.0 0.00 0.00 0.00 78 1015.8
20260903190756 79 86 5.0 11.0 0.00 0.00 0.00 78 1015.8
20260903190708 79 42 3.0 11.0 0.00 0.00 0.00 78 1015.8
20260903190600 79 27 5.0 11.0 0.00 0.00 0.00 77 1015.8
20260903190452 79 46 6.0 11.0 0.00 0.00 0.00 77 1015.7
20260903190351 79 15 7.0 11.0 0.00 0.00 0.00 77 1015.8
20260903190221 79 355 7.0 11.0 0.00 0.00 0.00 77 1015.7
20260903190142 79 355 7.0 11.0 0.00 0.00 0.00 77 1015.8
20260903190038 79 18 6.0 11.0 0.00 0.00 0.00 77 1015.8
20260903185949 79 59 4.0 11.0 0.00 0.00 0.00 78 1015.9
20260903185840 79 61 5.0 11.0 0.00 0.00 0.00 77 1015.9
20260903185732 79 46 6.0 11.0 0.00 0.00 0.00 77 1015.9
20260903185645 79 360 5.0 11.0 0.00 0.00 0.00 78 1016.0
20260903185535 79 360 4.0 9.0 0.00 0.00 0.00 78 1016.0
20260903185447 79 21 4.0 9.0 0.00 0.00 0.00 78 1016.0
20260903185337 79 70 5.0 9.0 0.00 0.00 0.00 78 1016.0
20260903185250 79 34 5.0 9.0 0.00 0.00 0.00 78 1016.1
20260903185121 79 33 6.0 9.0 0.00 0.00 0.00 77 1016.1
20260903185034 79 355 6.0 9.0 0.00 0.00 0.00 77 1016.0
20260903184930 79 65 5.0 9.0 0.00 0.00 0.00 77 1016.1
20260903184823 79 38 4.0 9.0 0.00 0.00 0.00 77 1016.0
20260903184734 79 23 6.0 9.0 0.00 0.00 0.00 77 1016.0
20260903184658 79 5 6.0 10.0 0.00 0.00 0.00 77 1016.0
20260903184528 79 18 6.0 11.0 0.00 0.00 0.00 77 1016.0
20260903184439 79 5 5.0 11.0 0.00 0.00 0.00 77 1016.0
20260903184332 79 5 5.0 11.0 0.00 0.00 0.00 77 1016.0
20260903184244 79 19 6.0 11.0 0.00 0.00 0.00 77 1016.0
20260903184135 79 5 5.0 11.0 0.00 0.00 0.00 77 1016.0
20260903184030 79 30 4.0 11.0 0.00 0.00 0.00 77 1016.2
20260903183922 79 18 6.0 11.0 0.00 0.00 0.00 76 1016.1
20260903183833 79 360 7.0 11.0 0.00 0.00 0.00 76 1016.1
20260903183725 79 9 7.0 11.0 0.00 0.00 0.00 77 1016.1
20260903183635 79 346 6.0 13.0 0.00 0.00 0.00 76 1016.1
20260903183548 79 37 5.0 13.0 0.00 0.00 0.00 77 1016.1
20260903183438 79 5 5.0 13.0 0.00 0.00 0.00 77 1016.1
20260903183330 79 360 5.0 13.0 0.00 0.00 0.00 77 1016.2
20260903183225 79 332 6.0 13.0 0.00 0.00 0.00 77 1016.1
20260903183147 79 338 6.0 13.0 0.00 0.00 0.00 77 1016.1
20260903183020 79 327 6.0 13.0 0.00 0.00 0.00 77 1016.1
20260903182933 79 342 8.0 13.0 0.00 0.00 0.00 76 1016.1
20260903182845 79 21 8.0 13.0 0.00 0.00 0.00 77 1016.2
20260903182758 79 23 6.0 11.0 0.00 0.00 0.00 77 1016.2
20260903182629 79 337 6.0 12.0 0.00 0.00 0.00 77 1016.1
20260903182522 79 319 5.0 12.0 0.00 0.00 0.00 78 1016.2
20260903182433 79 28 4.0 12.0 0.00 0.00 0.00 78 1016.3
20260903182330 79 11 3.0 13.0 0.00 0.00 0.00 78 1016.2
20260903182222 79 325 4.0 13.0 0.00 0.00 0.00 78 1016.2
20260903182135 79 323 3.0 13.0 0.00 0.00 0.00 78 1016.2
20260903182027 79 345 4.0 13.0 0.00 0.00 0.00 77 1016.2
20260903181939 79 325 6.0 13.0 0.00 0.00 0.00 77 1016.3
20260903181832 79 355 8.0 18.0 0.00 0.00 0.00 76 1016.3
20260903181744 79 298 8.0 18.0 0.00 0.00 0.00 76 1016.3
20260903181706 79 311 9.0 18.0 0.00 0.00 0.00 76 1016.4
20260903181536 79 326 8.0 18.0 0.00 0.00 0.00 76 1016.4
20260903181432 79 302 7.0 18.0 0.00 0.00 0.00 76 1016.4
20260903181325 80 309 8.0 18.0 0.00 0.00 0.00 76 1016.4
20260903181237 80 306 8.0 18.0 0.00 0.00 0.00 75 1016.5
20260903181129 80 327 10.0 18.0 0.00 0.00 0.00 75 1016.5
20260903181040 80 313 9.0 18.0 0.00 0.00 0.00 75 1016.5
20260903180953 80 291 7.0 18.0 0.00 0.00 0.00 75 1016.5
20260903180824 80 355 9.0 18.0 0.00 0.00 0.00 74 1016.5
20260903180736 80 316 11.0 25.0 0.00 0.00 0.00 74 1016.6
20260903180628 80 281 10.0 25.0 0.00 0.00 0.00 74 1016.6
20260903180545 80 329 8.0 25.0 0.00 0.00 0.00 74 1016.5
20260903180456 80 315 7.0 25.0 0.00 0.00 0.00 74 1016.5
20260903180408 81 321 9.0 25.0 0.00 0.00 0.00 74 1016.5
20260903180259 81 300 11.0 25.0 0.00 0.00 0.00 73 1016.5
20260903180221 81 298 13.0 25.0 0.00 0.00 0.00 72 1016.5
20260903180030 81 325 13.0 25.0 0.00 0.00 0.00 72 1016.6
20260903175943 82 323 15.0 25.0 0.00 0.00 0.00 71 1016.5
20260903175856 82 308 15.0 22.0 0.00 0.00 0.00 71 1016.6
20260903175728 82 322 13.0 22.0 0.00 0.00 0.00 71 1016.6
20260903175639 83 298 12.0 22.0 0.00 0.00 0.00 72 1016.6
20260903175535 83 294 14.0 22.0 0.00 0.00 0.00 72 1016.5
20260903175426 83 297 14.0 22.0 0.00 0.00 0.00 70 1016.5
20260903175338 84 311 11.0 21.0 0.00 0.00 0.00 71 1016.5
20260903175230 84 300 11.0 21.0 0.00 0.00 0.00 70 1016.5
20260903175142 84 273 13.0 21.0 0.00 0.00 0.00 70 1016.4
20260903175033 85 318 14.0 21.0 0.00 0.00 0.00 71 1016.5
20260903174923 85 293 12.0 20.0 0.00 0.00 0.00 71 1016.4
20260903174835 86 302 12.0 19.0 0.00 0.00 0.00 71 1016.4
20260903174747 86 288 11.0 19.0 0.00 0.00 0.00 70 1016.4
20260903174710 86 262 10.0 15.0 0.00 0.00 0.00 71 1016.4
20260903174542 86 304 7.0 15.0 0.00 0.00 0.00 70 1016.2
20260903174437 86 270 6.0 12.0 0.00 0.00 0.00 70 1016.1
20260903174348 86 252 6.0 14.0 0.00 0.00 0.00 70 1016.0
20260903174258 86 292 8.0 17.0 0.00 0.00 0.00 70 1016.0
20260903174130 86 323 7.0 17.0 0.00 0.00 0.00 70 1016.1
20260903174041 86 317 6.0 18.0 0.00 0.00 0.00 71 1016.0
20260903173954 86 281 6.0 18.0 0.00 0.00 0.00 71 1016.0
20260903173845 86 287 6.0 18.0 0.00 0.00 0.00 70 1016.1
20260903173757 86 299 9.0 18.0 0.00 0.00 0.00 69 1016.0
20260903173648 86 276 9.0 18.0 0.00 0.00 0.00 69 1016.0
20260903173559 87 298 12.0 18.0 0.00 0.00 0.00 69 1016.0
20260903173429 87 279 12.0 18.0 0.00 0.00 0.00 68 1016.0
20260903173325 87 304 12.0 18.0 0.00 0.00 0.00 69 1016.0
20260903173235 87 346 13.0 18.0 0.00 0.00 0.00 68 1015.9
20260903173157 87 300 13.0 18.0 0.00 0.00 0.00 69 1015.9
20260903173028 88 320 12.0 17.0 0.00 0.00 0.00 69 1015.9
20260903172939 88 312 10.0 17.0 0.00 0.00 0.00 70 1015.8
20260903172830 88 307 9.0 13.0 0.00 0.00 0.00 70 1015.7
20260903172742 88 273 8.0 13.0 0.00 0.00 0.00 71 1015.8
20260903172633 88 324 7.0 12.0 0.00 0.00 0.00 71 1015.6
20260903172524 88 344 6.0 12.0 0.00 0.00 0.00 71 1015.6
20260903172441 88 286 7.0 12.0 0.00 0.00 0.00 70 1015.5
20260903172332 88 303 7.0 12.0 0.00 0.00 0.00 69 1015.5
20260903172225 89 301 7.0 11.0 0.00 0.00 0.00 69 1015.5
20260903172136 89 275 7.0 11.0 0.00 0.00 0.00 70 1015.5
20260903172029 89 320 7.0 11.0 0.00 0.00 0.00 69 1015.5
20260903171940 89 278 7.0 11.0 0.00 0.00 0.00 69 1015.4
20260903171831 89 267 6.0 11.0 0.00 0.00 0.00 69 1015.5
20260903171723 89 319 6.0 11.0 0.00 0.00 0.00 69 1015.5
20260903171649 89 309 7.0 11.0 0.00 0.00 0.00 69 1015.4
20260903171540 89 261 8.0 11.0 0.00 0.00 0.00 68 1015.4
20260903171431 89 302 7.0 11.0 0.00 0.00 0.00 67 1015.4
20260903171323 90 259 5.0 11.0 0.00 0.00 0.00 69 1015.4
20260903171235 89 229 5.0 11.0 0.00 0.00 0.00 69 1015.3
20260903171126 89 270 6.0 12.0 0.00 0.00 0.00 68 1015.4
20260903171038 90 317 5.0 12.0 0.00 0.00 0.00 68 1015.3
20260903170930 90 281 5.0 14.0 0.00 0.00 0.00 68 1015.3
20260903170843 89 276 5.0 15.0 0.00 0.00 0.00 67 1015.3
20260903170737 90 311 6.0 15.0 0.00 0.00 0.00 67 1015.3
20260903170627 90 298 7.0 15.0 0.00 0.00 0.00 66 1015.2
20260903170540 90 240 6.0 15.0 0.00 0.00 0.00 67 1015.2
20260903170432 90 289 6.0 15.0 0.00 0.00 0.00 67 1015.2
20260903170323 90 290 8.0 15.0 0.00 0.00 0.00 66 1015.2
20260903170235 90 276 9.0 15.0 0.00 0.00 0.00 66 1015.1
20260903170157 90 288 9.0 15.0 0.00 0.00 0.00 67 1015.1
20260903170048 90 282 9.0 15.0 0.00 0.00 0.00 67 1015.1
20260903165939 90 296 8.0 11.0 0.00 0.00 0.00 66 1015.1
20260903165834 90 300 7.0 11.0 0.00 0.00 0.00 67 1015.0
20260903165727 90 273 9.0 11.0 0.00 0.00 0.00 68 1015.0
20260903165639 90 290 7.0 11.0 0.00 0.00 0.00 68 1014.9
20260903165531 90 302 4.0 9.0 0.00 0.00 0.00 70 1014.9
20260903165422 90 306 3.0 9.0 0.00 0.00 0.00 69 1014.8
20260903165334 90 261 5.0 9.0 0.00 0.00 0.00 68 1014.8
20260903165245 90 300 4.0 11.0 0.00 0.00 0.00 68 1014.7
20260903165136 90 262 4.0 11.0 0.00 0.00 0.00 68 1014.7
20260903165028 90 285 5.0 11.0 0.00 0.00 0.00 68 1014.7
20260903164943 90 305 5.0 11.0 0.00 0.00 0.00 68 1014.7
20260903164835 90 302 5.0 11.0 0.00 0.00 0.00 68 1014.7
20260903164726 90 294 5.0 11.0 0.00 0.00 0.00 69 1014.7
20260903164648 90 296 5.0 11.0 0.00 0.00 0.00 69 1014.7
20260903164539 90 315 7.0 11.0 0.00 0.00 0.00 68 1014.6
20260903164432 90 289 6.0 11.0 0.00 0.00 0.00 68 1014.7
20260903164324 90 292 5.0 10.0 0.00 0.00 0.00 69 1014.6
20260903164235 90 298 5.0 10.0 0.00 0.00 0.00 68 1014.5
20260903164128 90 296 5.0 10.0 0.00 0.00 0.00 69 1014.6
20260903164023 90 288 5.0 10.0 0.00 0.00 0.00 68 1014.6
20260903163936 90 275 3.0 8.0 0.00 0.00 0.00 70 1014.4
20260903163847 90 323 3.0 8.0 0.00 0.00 0.00 72 1014.5
20260903163737 90 250 3.0 8.0 0.00 0.00 0.00 71 1014.5
20260903163628 90 294 4.0 8.0 0.00 0.00 0.00 69 1014.4
20260903163541 89 302 5.0 8.0 0.00 0.00 0.00 69 1014.4
20260903163453 89 315 4.0 8.0 0.00 0.00 0.00 69 1014.5
20260903163344 89 236 3.0 8.0 0.00 0.00 0.00 69 1014.4
20260903163255 89 278 3.0 8.0 0.00 0.00 0.00 69 1014.4
20260903163157 89 280 4.0 8.0 0.00 0.00 0.00 69 1014.4
20260903163027 89 278 4.0 8.0 0.00 0.00 0.00 68 1014.4
20260903162922 89 277 4.0 7.0 0.00 0.00 0.00 68 1014.4
20260903162833 90 233 4.0 7.0 0.00 0.00 0.00 68 1014.3
20260903162724 90 248 3.0 8.0 0.00 0.00 0.00 69 1014.5
20260903162637 90 232 3.0 8.0 0.00 0.00 0.00 70 1014.5
20260903162548 90 256 2.0 8.0 0.00 0.00 0.00 70 1014.4
20260903162501 90 276 2.0 8.0 0.00 0.00 0.00 70 1014.4
20260903162331 90 273 3.0 9.0 0.00 0.00 0.00 70 1014.4
20260903162224 90 231 3.0 9.0 0.00 0.00 0.00 69 1014.5
20260903162136 90 234 3.0 9.0 0.00 0.00 0.00 70 1014.5
20260903162032 90 246 2.0 9.0 0.00 0.00 0.00 70 1014.5
20260903161924 90 237 3.0 9.0 0.00 0.00 0.00 68 1014.5
20260903161835 90 237 3.0 9.0 0.00 0.00 0.00 68 1014.5
20260903161728 90 238 4.0 9.0 0.00 0.00 0.00 67 1014.6
20260903161651 90 249 4.0 9.0 0.00 0.00 0.00 68 1014.6
20260903161523 90 271 5.0 10.0 0.00 0.00 0.00 67 1014.6
20260903161435 90 238 5.0 10.0 0.00 0.00 0.00 67 1014.6
20260903161326 90 251 4.0 10.0 0.00 0.00 0.00 69 1014.7
20260903161243 90 227 3.0 10.0 0.00 0.00 0.00 68 1014.7
20260903161134 90 256 3.0 10.0 0.00 0.00 0.00 68 1014.7
20260903161045 90 274 3.0 10.0 0.00 0.00 0.00 68 1014.7
20260903160936 90 229 3.0 10.0 0.00 0.00 0.00 68 1014.7
20260903160829 90 248 5.0 10.0 0.00 0.00 0.00 68 1014.7
20260903160721 90 298 4.0 10.0 0.00 0.00 0.00 69 1014.7
20260903160634 90 248 4.0 10.0 0.00 0.00 0.00 68 1014.8
20260903160526 90 252 5.0 10.0 0.00 0.00 0.00 68 1014.7
20260903160437 90 263 4.0 10.0 0.00 0.00 0.00 67 1014.7
20260903160335 90 284 4.0 10.0 0.00 0.00 0.00 68 1014.8
20260903160246 90 232 4.0 10.0 0.00 0.00 0.00 68 1014.8
20260903160208 90 291 5.0 10.0 0.00 0.00 0.00 68 1014.8
20260903160059 90 257 4.0 10.0 0.00 0.00 0.00 70 1014.8
20260903155930 90 252 2.0 10.0 0.00 0.00 0.00 69 1014.8
20260903155843 90 267 2.0 10.0 0.00 0.00 0.00 70 1014.8
20260903155755 90 252 4.0 10.0 0.00 0.00 0.00 68 1014.9
20260903155647 90 250 5.0 10.0 0.00 0.00 0.00 68 1014.8
20260903155600 90 240 5.0 10.0 0.00 0.00 0.00 68 1014.9
20260903155430 90 221 5.0 12.0 0.00 0.00 0.00 68 1014.9
20260903155341 89 229 4.0 12.0 0.00 0.00 0.00 70 1014.9
20260903155257 89 256 2.0 12.0 0.00 0.00 0.00 70 1014.9
20260903155147 89 264 3.0 12.0 0.00 0.00 0.00 69 1014.9
20260903155057 89 324 4.0 12.0 0.00 0.00 0.00 69 1014.9
20260903155008 89 281 5.0 12.0 0.00 0.00 0.00 69 1014.9
20260903154900 89 289 4.0 12.0 0.00 0.00 0.00 70 1014.9
20260903154732 89 271 3.0 12.0 0.00 0.00 0.00 69 1014.9
20260903154653 89 273 5.0 12.0 0.00 0.00 0.00 69 1014.9
20260903154524 89 275 5.0 12.0 0.00 0.00 0.00 68 1015.0
20260903154435 89 254 3.0 11.0 0.00 0.00 0.00 70 1015.0
20260903154328 89 251 4.0 11.0 0.00 0.00 0.00 70 1015.0
20260903154245 89 295 4.0 11.0 0.00 0.00 0.00 70 1015.0
20260903154156 89 272 5.0 11.0 0.00 0.00 0.00 70 1015.1
20260903154027 88 275 5.0 11.0 0.00 0.00 0.00 71 1015.0
20260903153938 88 223 3.0 11.0 0.00 0.00 0.00 72 1015.0
20260903153829 88 272 4.0 11.0 0.00 0.00 0.00 73 1015.0
20260903153742 88 266 5.0 11.0 0.00 0.00 0.00 71 1015.1
20260903153634 88 244 4.0 11.0 0.00 0.00 0.00 73 1015.0
20260903153525 88 229 5.0 9.0 0.00 0.00 0.00 71 1015.1
20260903153436 88 263 5.0 9.0 0.00 0.00 0.00 72 1015.2
20260903153348 88 261 4.0 8.0 0.00 0.00 0.00 73 1015.1
20260903153243 88 301 3.0 8.0 0.00 0.00 0.00 73 1015.1
20260903153201 88 256 3.0 8.0 0.00 0.00 0.00 73 1015.1
20260903153032 88 264 4.0 8.0 0.00 0.00 0.00 74 1015.1
20260903152944 88 269 5.0 8.0 0.00 0.00 0.00 73 1015.1
20260903152835 88 243 4.0 8.0 0.00 0.00 0.00 74 1015.1
20260903152726 87 257 3.0 8.0 0.00 0.00 0.00 74 1015.1
20260903152638 87 288 3.0 8.0 0.00 0.00 0.00 75 1015.1
20260903152530 87 225 5.0 8.0 0.00 0.00 0.00 74 1015.1
20260903152421 87 273 3.0 8.0 0.00 0.00 0.00 76 1015.2
20260903152337 87 296 2.0 8.0 0.00 0.00 0.00 76 1015.2
20260903152247 87 297 3.0 8.0 0.00 0.00 0.00 75 1015.2
20260903152200 87 290 3.0 8.0 0.00 0.00 0.00 76 1015.2
20260903152110 87 247 3.0 10.0 0.00 0.00 0.00 75 1015.2
20260903152001 87 234 3.0 10.0 0.00 0.00 0.00 75 1015.2
20260903151833 87 236 3.0 10.0 0.00 0.00 0.00 76 1015.2
20260903151745 87 256 4.0 10.0 0.00 0.00 0.00 75 1015.2
20260903151645 87 207 4.0 10.0 0.00 0.00 0.00 75 1015.3
20260903151536 87 221 3.0 10.0 0.00 0.00 0.00 76 1015.2
20260903151448 87 282 3.0 10.0 0.00 0.00 0.00 76 1015.3
20260903151359 86 299 5.0 10.0 0.00 0.00 0.00 76 1015.3
20260903151234 86 260 6.0 10.0 0.00 0.00 0.00 75 1015.3
20260903151147 86 261 5.0 9.0 0.00 0.00 0.00 75 1015.2
20260903151100 86 241 4.0 9.0 0.00 0.00 0.00 76 1015.2
20260903151012 86 233 3.0 8.0 0.00 0.00 0.00 76 1015.3
20260903150903 86 244 4.0 8.0 0.00 0.00 0.00 76 1015.3
20260903150754 86 246 4.0 8.0 0.00 0.00 0.00 76 1015.4
20260903150646 86 259 3.0 8.0 0.00 0.00 0.00 76 1015.4
20260903150557 86 237 3.0 8.0 0.00 0.00 0.00 77 1015.4
20260903150449 86 275 3.0 8.0 0.00 0.00 0.00 76 1015.4
20260903150401 86 235 3.0 7.0 0.00 0.00 0.00 77 1015.3
20260903150301 86 218 2.0 7.0 0.00 0.00 0.00 78 1015.4
20260903150141 86 235 2.0 7.0 0.00 0.00 0.00 77 1015.4
20260903150032 86 286 2.0 7.0 0.00 0.00 0.00 77 1015.3
20260903145948 86 223 3.0 7.0 0.00 0.00 0.00 78 1015.3
20260903145838 86 233 3.0 7.0 0.00 0.00 0.00 77 1015.3
20260903145730 86 304 3.0 7.0 0.00 0.00 0.00 77 1015.3
20260903145642 86 242 3.0 7.0 0.00 0.00 0.00 76 1015.3
20260903145534 86 235 3.0 7.0 0.00 0.00 0.00 77 1015.2
20260903145426 86 275 3.0 7.0 0.00 0.00 0.00 76 1015.2
20260903145338 86 264 3.0 7.0 0.00 0.00 0.00 76 1015.2
20260903145250 86 277 3.0 6.0 0.00 0.00 0.00 76 1015.2
20260903145202 86 266 3.0 9.0 0.00 0.00 0.00 76 1015.1
20260903145053 86 223 3.0 9.0 0.00 0.00 0.00 77 1015.2
20260903144927 86 223 3.0 9.0 0.00 0.00 0.00 77 1015.3
20260903144838 86 286 3.0 9.0 0.00 0.00 0.00 76 1015.2
20260903144731 86 273 3.0 9.0 0.00 0.00 0.00 76 1015.1
20260903144652 86 241 3.0 9.0 0.00 0.00 0.00 76 1015.1
20260903144524 86 211 3.0 9.0 0.00 0.00 0.00 76 1015.1
20260903144436 86 233 3.0 9.0 0.00 0.00 0.00 76 1015.2
20260903144327 86 250 4.0 9.0 0.00 0.00 0.00 76 1015.2
20260903144239 86 277 3.0 8.0 0.00 0.00 0.00 77 1015.1
20260903144132 86 285 3.0 8.0 0.00 0.00 0.00 76 1015.1
20260903144048 86 253 3.0 8.0 0.00 0.00 0.00 76 1015.2
20260903143959 86 259 4.0 8.0 0.00 0.00 0.00 77 1015.1
20260903143850 86 217 3.0 8.0 0.00 0.00 0.00 77 1015.1
20260903143800 85 274 1.0 8.0 0.00 0.00 0.00 78 1015.1
20260903143631 85 238 0.0 8.0 0.00 0.00 0.00 78 1015.2
20260903143523 85 296 2.0 8.0 0.00 0.00 0.00 78 1015.2
20260903143435 85 242 3.0 8.0 0.00 0.00 0.00 77 1015.1
20260903143326 85 265 4.0 8.0 0.00 0.00 0.00 77 1015.2
20260903143236 85 264 3.0 8.0 0.00 0.00 0.00 78 1015.1
20260903143158 85 272 2.0 9.0 0.00 0.00 0.00 78 1015.1
20260903143053 85 263 1.0 9.0 0.00 0.00 0.00 78 1015.1
20260903143005 85 265 2.0 9.0 0.00 0.00 0.00 78 1015.1
20260903142856 85 279 2.0 9.0 0.00 0.00 0.00 78 1015.1
20260903142809 85 279 2.0 9.0 0.00 0.00 0.00 77 1015.1
20260903142659 85 283 3.0 9.0 0.00 0.00 0.00 77 1015.1
20260903142529 85 271 4.0 9.0 0.00 0.00 0.00 78 1015.0
20260903142421 85 254 4.0 9.0 0.00 0.00 0.00 77 1015.0
20260903142333 85 270 3.0 9.0 0.00 0.00 0.00 77 1015.1
20260903142245 85 301 2.0 8.0 0.00 0.00 0.00 78 1015.1
20260903142157 85 285 4.0 8.0 0.00 0.00 0.00 78 1015.0
20260903142048 85 268 3.0 8.0 0.00 0.00 0.00 78 1015.0
20260903142003 85 286 3.0 9.0 0.00 0.00 0.00 78 1015.0
20260903141915 85 273 2.0 9.0 0.00 0.00 0.00 78 1015.0
20260903141806 84 276 2.0 9.0 0.00 0.00 0.00 78 1015.0
20260903141645 84 275 3.0 9.0 0.00 0.00 0.00 78 1014.9
20260903141537 84 240 2.0 9.0 0.00 0.00 0.00 79 1015.0
20260903141428 84 262 3.0 9.0 0.00 0.00 0.00 78 1015.0
20260903141339 84 262 5.0 9.0 0.00 0.00 0.00 78 1015.0
20260903141232 84 255 4.0 9.0 0.00 0.00 0.00 78 1014.9
20260903141124 84 217 4.0 7.0 0.00 0.00 0.00 78 1015.0
20260903141036 84 284 3.0 6.0 0.00 0.00 0.00 78 1014.9
20260903140953 84 254 3.0 5.0 0.00 0.00 0.00 79 1014.9
20260903140824 84 276 3.0 6.0 0.00 0.00 0.00 79 1014.9
20260903140736 84 254 2.0 6.0 0.00 0.00 0.00 80 1014.9
20260903140647 84 279 1.0 6.0 0.00 0.00 0.00 80 1014.9
20260903140558 84 262 2.0 6.0 0.00 0.00 0.00 80 1014.9
20260903140429 84 265 3.0 6.0 0.00 0.00 0.00 80 1014.9
20260903140342 84 287 2.0 6.0 0.00 0.00 0.00 81 1014.8
20260903140254 84 275 2.0 5.0 0.00 0.00 0.00 81 1014.8
20260903140154 84 275 2.0 5.0 0.00 0.00 0.00 81 1014.9
20260903140024 83 304 2.0 5.0 0.00 0.00 0.00 81 1014.9
20260903135940 83 261 2.0 5.0 0.00 0.00 0.00 81 1014.9
20260903135833 83 261 2.0 5.0 0.00 0.00 0.00 81 1014.9
20260903135723 83 261 2.0 5.0 0.00 0.00 0.00 81 1014.8
20260903135634 83 232 2.0 5.0 0.00 0.00 0.00 81 1014.8
20260903135525 83 253 3.0 5.0 0.00 0.00 0.00 82 1014.8
20260903135437 83 229 2.0 6.0 0.00 0.00 0.00 81 1014.8
20260903135330 83 267 2.0 5.0 0.00 0.00 0.00 82 1014.8
20260903135221 83 211 3.0 5.0 0.00 0.00 0.00 81 1014.8
20260903135137 83 207 3.0 5.0 0.00 0.00 0.00 82 1014.8
20260903135049 83 288 2.0 5.0 0.00 0.00 0.00 82 1014.9
20260903134939 83 216 2.0 5.0 0.00 0.00 0.00 83 1014.8
20260903134831 82 227 1.0 5.0 0.00 0.00 0.00 83 1014.9
20260903134722 82 248 1.0 5.0 0.00 0.00 0.00 83 1014.8
20260903134645 82 248 1.0 5.0 0.00 0.00 0.00 83 1014.8
20260903134536 82 248 1.0 5.0 0.00 0.00 0.00 83 1014.8
20260903134425 82 248 1.0 5.0 0.00 0.00 0.00 83 1014.8
20260903134337 82 248 2.0 5.0 0.00 0.00 0.00 83 1014.9
20260903134234 82 248 3.0 5.0 0.00 0.00 0.00 83 1014.8
20260903134126 82 222 3.0 5.0 0.00 0.00 0.00 83 1014.8
20260903134038 82 240 2.0 5.0 0.00 0.00 0.00 83 1014.9
20260903133929 82 220 1.0 5.0 0.00 0.00 0.00 84 1014.8
20260903133821 82 220 1.0 5.0 0.00 0.00 0.00 84 1014.8
20260903133734 82 220 2.0 5.0 0.00 0.00 0.00 84 1014.8
20260903133646 82 220 1.0 5.0 0.00 0.00 0.00 84 1014.8
20260903133559 82 246 0.0 4.0 0.00 0.00 0.00 84 1014.8
20260903133430 82 246 0.0 4.0 0.00 0.00 0.00 84 1014.9
20260903133347 82 246 1.0 4.0 0.00 0.00 0.00 84 1014.9
20260903133236 81 246 1.0 4.0 0.00 0.00 0.00 84 1014.8
20260903133158 81 246 1.0 4.0 0.00 0.00 0.00 85 1014.8
20260903133029 81 155 1.0 4.0 0.00 0.00 0.00 85 1014.8
20260903132920 81 175 2.0 4.0 0.00 0.00 0.00 85 1014.8
20260903132834 81 270 1.0 4.0 0.00 0.00 0.00 85 1014.9
20260903132746 81 232 0.0 3.0 0.00 0.00 0.00 85 1014.8
20260903132658 81 250 0.0 3.0 0.00 0.00 0.00 85 1014.8
20260903132528 81 250 1.0 3.0 0.00 0.00 0.00 85 1014.9
20260903132424 81 250 1.0 3.0 0.00 0.00 0.00 85 1014.8
20260903132337 81 250 0.0 3.0 0.00 0.00 0.00 86 1014.8
20260903132228 81 215 0.0 3.0 0.00 0.00 0.00 86 1014.8
20260903132139 81 215 1.0 3.0 0.00 0.00 0.00 86 1014.8
20260903132030 81 215 1.0 3.0 0.00 0.00 0.00 86 1014.8
20260903131923 81 240 0.0 3.0 0.00 0.00 0.00 87 1014.8
20260903131836 80 240 1.0 3.0 0.00 0.00 0.00 87 1014.9
20260903131727 80 159 1.0 3.0 0.00 0.00 0.00 87 1014.9
20260903131650 80 230 1.0 3.0 0.00 0.00 0.00 87 1014.9
20260903131525 80 196 0.0 0.0 0.00 0.00 0.00 87 1014.9
20260903131437 80 248 0.0 0.0 0.00 0.00 0.00 88 1014.9
20260903131328 80 242 0.0 1.0 0.00 0.00 0.00 88 1014.9
20260903131221 80 242 0.0 2.0 0.00 0.00 0.00 88 1014.9
20260903131132 80 242 0.0 2.0 0.00 0.00 0.00 88 1014.9
20260903131044 80 242 0.0 2.0 0.00 0.00 0.00 88 1014.9
20260903130957 80 242 0.0 2.0 0.00 0.00 0.00 89 1014.9
20260903130828 80 242 0.0 2.0 0.00 0.00 0.00 89 1014.9
20260903130723 80 242 0.0 2.0 0.00 0.00 0.00 89 1014.9
20260903130635 80 123 0.0 2.0 0.00 0.00 0.00 90 1014.9
20260903130527 80 123 1.0 2.0 0.00 0.00 0.00 90 1014.8
20260903130438 79 123 1.0 3.0 0.00 0.00 0.00 90 1014.9
20260903130331 79 123 1.0 3.0 0.00 0.00 0.00 90 1014.9
20260903130242 79 123 0.0 3.0 0.00 0.00 0.00 91 1014.9
20260903130145 79 123 0.0 3.0 0.00 0.00 0.00 91 1014.9
20260903130036 79 123 0.0 3.0 0.00 0.00 0.00 91 1014.9
20260903125947 79 123 0.0 3.0 0.00 0.00 0.00 91 1014.9
20260903125838 79 162 1.0 3.0 0.00 0.00 0.00 92 1014.9
20260903125733 79 162 1.0 3.0 0.00 0.00 0.00 92 1015.0
20260903125625 79 213 0.0 2.0 0.00 0.00 0.00 92 1014.9
20260903125537 79 213 0.0 2.0 0.00 0.00 0.00 92 1015.0
20260903125429 78 213 0.0 2.0 0.00 0.00 0.00 92 1015.1
20260903125340 78 213 0.0 2.0 0.00 0.00 0.00 93 1015.0
20260903125252 78 213 0.0 2.0 0.00 0.00 0.00 93 1015.1
20260903125123 78 213 0.0 2.0 0.00 0.00 0.00 93 1015.0
20260903125036 78 213 0.0 2.0 0.00 0.00 0.00 93 1015.1
20260903124929 78 213 0.0 2.0 0.00 0.00 0.00 93 1015.1
20260903124843 78 213 0.0 2.0 0.00 0.00 0.00 94 1015.2
20260903124735 78 213 0.0 2.0 0.00 0.00 0.00 94 1015.1
20260903124656 77 213 1.0 2.0 0.00 0.00 0.00 94 1015.1
20260903124527 77 213 0.0 1.0 0.00 0.00 0.00 94 1015.1
20260903124440 77 213 0.0 1.0 0.00 0.00 0.00 94 1015.2
20260903124332 77 213 0.0 1.0 0.00 0.00 0.00 94 1015.2
20260903124223 77 213 0.0 1.0 0.00 0.00 0.00 94 1015.2
20260903124133 77 213 0.0 1.0 0.00 0.00 0.00 94 1015.2
20260903124026 77 213 0.0 1.0 0.00 0.00 0.00 94 1015.2
20260903123923 77 213 0.0 1.0 0.00 0.00 0.00 95 1015.2
20260903123835 76 213 0.0 1.0 0.00 0.00 0.00 94 1015.3
20260903123727 76 213 0.0 1.0 0.00 0.00 0.00 94 1015.2
20260903123640 76 213 0.0 1.0 0.00 0.00 0.00 94 1015.2
20260903123533 76 213 0.0 1.0 0.00 0.00 0.00 94 1015.2
20260903123423 76 213 0.0 0.0 0.00 0.00 0.00 94 1015.3
20260903123334 76 213 0.0 0.0 0.00 0.00 0.00 94 1015.2
20260903123246 76 213 0.0 0.0 0.00 0.00 0.00 94 1015.3
20260903123148 76 213 0.0 0.0 0.00 0.00 0.00 94 1015.3
20260903123023 76 213 0.0 0.0 0.00 0.00 0.00 94 1015.3
20260903122936 76 213 0.0 0.0 0.00 0.00 0.00 94 1015.2
20260903122829 76 213 0.0 0.0 0.00 0.00 0.00 95 1015.2
20260903122722 76 213 0.0 0.0 0.00 0.00 0.00 95 1015.3
20260903122634 76 213 0.0 0.0 0.00 0.00 0.00 94 1015.3
20260903122525 76 213 0.0 0.0 0.00 0.00 0.00 94 1015.2
20260903122438 76 213 0.0 0.0 0.00 0.00 0.00 94 1015.2
20260903122348 76 213 0.0 0.0 0.00 0.00 0.00 94 1015.2
20260903122301 76 213 0.0 0.0 0.00 0.00 0.00 94 1015.2
20260903122136 76 213 0.0 0.0 0.00 0.00 0.00 95 1015.3
20260903122028 76 213 0.0 0.0 0.00 0.00 0.00 95 1015.3
20260903121921 76 213 0.0 0.0 0.00 0.00 0.00 95 1015.2
20260903121834 76 213 0.0 0.0 0.00 0.00 0.00 95 1015.2
20260903121726 76 213 0.0 0.0 0.00 0.00 0.00 95 1015.2
20260903121648 76 213 0.0 0.0 0.00 0.00 0.00 95 1015.2
20260903121540 75 213 0.0 0.0 0.00 0.00 0.00 95 1015.2
20260903121432 75 213 0.0 0.0 0.00 0.00 0.00 95 1015.3
20260903121343 75 213 0.0 0.0 0.00 0.00 0.00 95 1015.3
20260903121300 75 213 0.0 0.0 0.00 0.00 0.00 95 1015.3
20260903121132 75 213 0.0 0.0 0.00 0.00 0.00 95 1015.3
20260903121024 75 213 0.0 0.0 0.00 0.00 0.00 95 1015.3
20260903120936 75 213 0.0 0.0 0.00 0.00 0.00 95 1015.2
20260903120828 75 213 0.0 0.0 0.00 0.00 0.00 95 1015.3
20260903120740 75 213 0.0 0.0 0.00 0.00 0.00 95 1015.2
20260903120651 75 213 0.0 0.0 0.00 0.00 0.00 95 1015.2
20260903120522 75 213 0.0 0.0 0.00 0.00 0.00 95 1015.2
20260903120435 75 213 0.0 0.0 0.00 0.00 0.00 95 1015.2
20260903120352 75 213 0.0 0.0 0.00 0.00 0.00 95 1015.2
20260903120242 75 213 0.0 0.0 0.00 0.00 0.00 95 1015.2
20260903120204 75 213 0.0 0.0 0.00 0.00 0.00 95 1015.2
20260903120055 75 213 0.0 0.0 0.00 0.00 0.00 95 1015.1
20260903115927 75 213 0.0 1.0 0.00 0.00 0.00 95 1015.2
20260903115838 75 213 0.0 1.0 0.00 0.00 0.00 95 1015.2
20260903115730 75 213 0.0 1.0 0.00 0.00 0.00 95 1015.2
20260903115642 75 213 0.0 1.0 0.00 0.00 0.00 95 1015.2
20260903115533 75 213 0.0 1.0 0.00 0.00 0.00 95 1015.2
20260903115425 75 213 0.0 1.0 0.00 0.00 0.00 96 1015.1
20260903115320 75 213 0.0 1.0 0.00 0.00 0.00 96 1015.2
20260903115233 75 213 0.0 1.0 0.00 0.00 0.00 96 1015.1
20260903115146 75 213 0.0 1.0 0.00 0.00 0.00 96 1015.1
20260903115058 75 213 0.0 1.0 0.00 0.00 0.00 96 1015.1
20260903114929 75 213 0.0 1.0 0.00 0.00 0.00 96 1015.2
20260903114841 75 213 0.0 1.0 0.00 0.00 0.00 96 1015.2
20260903114753 75 213 0.0 1.0 0.00 0.00 0.00 96 1015.1
20260903114654 75 213 0.0 1.0 0.00 0.00 0.00 96 1015.1
20260903114546 75 213 0.0 1.0 0.00 0.00 0.00 96 1015.2
20260903114438 75 213 0.0 1.0 0.00 0.00 0.00 96 1015.1
20260903114334 75 258 0.0 1.0 0.00 0.00 0.00 96 1015.1
20260903114227 75 258 0.0 1.0 0.00 0.00 0.00 96 1015.1
20260903114138 75 217 0.0 0.0 0.00 0.00 0.00 96 1015.2
20260903114031 75 217 0.0 0.0 0.00 0.00 0.00 96 1015.1
20260903113921 75 217 0.0 0.0 0.00 0.00 0.00 96 1015.3
20260903113833 75 217 0.0 0.0 0.00 0.00 0.00 96 1015.2
20260903113726 75 217 0.0 0.0 0.00 0.00 0.00 96 1015.1
20260903113638 75 217 0.0 0.0 0.00 0.00 0.00 96 1015.1
20260903113534 75 217 0.0 0.0 0.00 0.00 0.00 96 1015.1
20260903113424 75 217 0.0 0.0 0.00 0.00 0.00 96 1015.1
20260903113337 75 217 0.0 0.0 0.00 0.00 0.00 96 1015.1
20260903113229 75 217 0.0 0.0 0.00 0.00 0.00 96 1015.0
20260903113150 75 217 0.0 0.0 0.00 0.00 0.00 96 1015.0
20260903113022 75 217 0.0 0.0 0.00 0.00 0.00 96 1015.0
20260903112933 75 217 0.0 0.0 0.00 0.00 0.00 96 1015.0
20260903112825 75 217 0.0 0.0 0.00 0.00 0.00 96 1015.0
20260903112721 75 217 0.0 0.0 0.00 0.00 0.00 96 1015.1
20260903112632 75 217 0.0 0.0 0.00 0.00 0.00 96 1015.0
20260903112544 75 217 0.0 0.0 0.00 0.00 0.00 96 1015.0
20260903112435 75 217 0.0 0.0 0.00 0.00 0.00 96 1015.0
20260903112326 75 217 0.0 0.0 0.00 0.00 0.00 96 1015.0
20260903112239 75 217 0.0 0.0 0.00 0.00 0.00 96 1014.9
20260903112132 75 217 0.0 0.0 0.00 0.00 0.00 96 1015.0
20260903112043 75 217 0.0 0.0 0.00 0.00 0.00 96 1015.0
20260903111935 74 217 0.0 0.0 0.00 0.00 0.00 96 1015.0
20260903111848 75 217 0.0 0.0 0.00 0.00 0.00 96 1015.0
20260903111759 74 217 0.0 0.0 0.00 0.00 0.00 96 1015.0
20260903111724 74 217 0.0 0.0 0.00 0.00 0.00 96 1014.9
20260903111554 74 217 0.0 0.0 0.00 0.00 0.00 96 1014.9
20260903111426 74 217 0.0 0.0 0.00 0.00 0.00 96 1014.9
20260903111339 74 217 0.0 0.0 0.00 0.00 0.00 96 1014.9
20260903111231 74 217 0.0 0.0 0.00 0.00 0.00 96 1014.9
20260903111143 74 217 0.0 0.0 0.00 0.00 0.00 96 1014.9
20260903111056 74 217 0.0 0.0 0.00 0.00 0.00 96 1014.9
20260903111007 74 217 0.0 0.0 0.00 0.00 0.00 96 1014.9
20260903110858 74 217 0.0 0.0 0.00 0.00 0.00 96 1014.9
20260903110729 74 217 0.0 0.0 0.00 0.00 0.00 96 1014.9
20260903110625 74 217 0.0 0.0 0.00 0.00 0.00 96 1014.8
20260903110537 74 217 0.0 0.0 0.00 0.00 0.00 96 1014.8
20260903110429 74 217 0.0 0.0 0.00 0.00 0.00 96 1014.8
20260903110340 74 217 0.0 0.0 0.00 0.00 0.00 96 1014.9
20260903110254 74 217 0.0 0.0 0.00 0.00 0.00 96 1014.9
20260903110215 74 217 0.0 0.0 0.00 0.00 0.00 96 1014.8
20260903110024 74 217 0.0 0.0 0.00 0.00 0.00 96 1014.8
20260903105936 74 217 0.0 0.0 0.00 0.00 0.00 97 1014.7
20260903105827 74 217 0.0 0.0 0.00 0.00 0.00 96 1014.9
20260903105743 74 217 0.0 0.0 0.00 0.00 0.00 96 1014.8
20260903105634 74 217 0.0 0.0 0.00 0.00 0.00 96 1014.8
20260903105527 74 217 0.0 0.0 0.00 0.00 0.00 96 1014.7
20260903105439 74 217 0.0 0.0 0.00 0.00 0.00 96 1014.8
20260903105330 74 217 0.0 0.0 0.00 0.00 0.00 96 1014.8
20260903105241 74 217 0.0 0.0 0.00 0.00 0.00 96 1014.8
20260903105152 74 217 0.0 0.0 0.00 0.00 0.00 96 1014.8
20260903105024 74 217 0.0 0.0 0.00 0.00 0.00 96 1014.8
20260903104935 74 217 0.0 0.0 0.00 0.00 0.00 96 1014.8
20260903104831 74 217 0.0 0.0 0.00 0.00 0.00 97 1014.8
20260903104722 74 217 0.0 0.0 0.00 0.00 0.00 97 1014.8
20260903104645 74 217 0.0 0.0 0.00 0.00 0.00 97 1014.8
20260903104535 74 217 0.0 0.0 0.00 0.00 0.00 96 1014.7
20260903104427 74 217 0.0 0.0 0.00 0.00 0.00 96 1014.8
20260903104340 74 217 0.0 0.0 0.00 0.00 0.00 96 1014.8
20260903104230 74 217 0.0 0.0 0.00 0.00 0.00 96 1014.8
20260903104122 74 217 0.0 0.0 0.00 0.00 0.00 96 1014.8
20260903104034 74 217 0.0 0.0 0.00 0.00 0.00 96 1014.8
20260903103930 74 217 0.0 0.0 0.00 0.00 0.00 96 1014.7
20260903103822 74 217 0.0 0.0 0.00 0.00 0.00 96 1014.8
20260903103733 74 217 0.0 0.0 0.00 0.00 0.00 96 1014.7
20260903103627 74 217 0.0 0.0 0.00 0.00 0.00 96 1014.8
20260903103539 74 217 0.0 0.0 0.00 0.00 0.00 96 1014.8
20260903103430 74 217 0.0 0.0 0.00 0.00 0.00 96 1014.8
20260903103342 74 217 0.0 0.0 0.00 0.00 0.00 96 1014.8
20260903103254 74 217 0.0 0.0 0.00 0.00 0.00 97 1014.8
20260903103155 74 217 0.0 0.0 0.00 0.00 0.00 97 1014.8
20260903103049 74 217 0.0 0.0 0.00 0.00 0.00 96 1014.7
20260903102940 74 217 0.0 0.0 0.00 0.00 0.00 97 1014.8
20260903102832 74 217 0.0 0.0 0.00 0.00 0.00 97 1014.8
20260903102725 74 217 0.0 0.0 0.00 0.00 0.00 96 1014.7
20260903102637 74 217 0.0 0.0 0.00 0.00 0.00 96 1014.8
20260903102548 74 217 0.0 0.0 0.00 0.00 0.00 96 1014.8
20260903102500 74 217 0.0 0.0 0.00 0.00 0.00 96 1014.8
20260903102330 74 217 0.0 0.0 0.00 0.00 0.00 97 1014.8
20260903102243 74 217 0.0 0.0 0.00 0.00 0.00 97 1014.8
20260903102155 74 217 0.0 0.0 0.00 0.00 0.00 97 1014.8
20260903102030 74 217 0.0 0.0 0.00 0.00 0.00 97 1014.8
20260903101922 74 217 0.0 0.0 0.00 0.00 0.00 97 1014.8
20260903101834 74 217 0.0 0.0 0.00 0.00 0.00 96 1014.8
20260903101726 74 217 0.0 0.0 0.00 0.00 0.00 96 1014.8
20260903101648 74 217 0.0 0.0 0.00 0.00 0.00 96 1014.8
20260903101540 74 217 0.0 0.0 0.00 0.00 0.00 96 1014.8
20260903101431 75 217 0.0 0.0 0.00 0.00 0.00 97 1014.7
20260903101324 75 217 0.0 0.0 0.00 0.00 0.00 97 1014.7
20260903101221 74 217 0.0 0.0 0.00 0.00 0.00 97 1014.8
20260903101132 75 217 0.0 0.0 0.00 0.00 0.00 96 1014.7
20260903101023 75 217 0.0 0.0 0.00 0.00 0.00 97 1014.8
20260903100936 75 217 0.0 0.0 0.00 0.00 0.00 97 1014.8
20260903100829 75 217 0.0 0.0 0.00 0.00 0.00 97 1014.8
20260903100741 75 217 0.0 0.0 0.00 0.00 0.00 97 1014.8
20260903100653 75 217 0.0 0.0 0.00 0.00 0.00 97 1014.8
20260903100605 75 217 0.0 0.0 0.00 0.00 0.00 97 1014.8
20260903100518 75 217 0.0 0.0 0.00 0.00 0.00 97 1014.8
20260903100409 75 217 0.0 0.0 0.00 0.00 0.00 97 1014.7
20260903100301 75 217 0.0 0.0 0.00 0.00 0.00 97 1014.8
20260903100204 75 217 0.0 0.0 0.00 0.00 0.00 97 1014.8
20260903100035 75 217 0.0 0.0 0.00 0.00 0.00 97 1014.8
20260903095926 75 217 0.0 0.0 0.00 0.00 0.00 97 1014.8
20260903095838 75 217 0.0 0.0 0.00 0.00 0.00 97 1014.8
20260903095731 74 217 0.0 0.0 0.00 0.00 0.00 97 1014.9
20260903095624 74 217 0.0 0.0 0.00 0.00 0.00 97 1014.9
20260903095537 74 217 0.0 0.0 0.00 0.00 0.00 97 1014.9
20260903095448 74 217 0.0 0.0 0.00 0.00 0.00 97 1014.9
20260903095338 74 217 0.0 0.0 0.00 0.00 0.00 97 1014.8
20260903095253 74 217 0.0 0.0 0.00 0.00 0.00 97 1014.8
20260903095144 74 217 0.0 0.0 0.00 0.00 0.00 97 1014.9
20260903095035 74 217 0.0 0.0 0.00 0.00 0.00 97 1014.9
20260903094927 74 217 0.0 0.0 0.00 0.00 0.00 97 1014.8
20260903094838 74 217 0.0 0.0 0.00 0.00 0.00 97 1014.8
20260903094750 74 217 0.0 0.0 0.00 0.00 0.00 97 1014.8
20260903094713 74 217 0.0 0.0 0.00 0.00 0.00 97 1014.8
20260903094543 74 217 0.0 0.0 0.00 0.00 0.00 97 1014.8
20260903094456 74 217 0.0 0.0 0.00 0.00 0.00 97 1014.7
20260903094327 74 217 0.0 0.0 0.00 0.00 0.00 97 1014.8
20260903094223 74 217 0.0 0.0 0.00 0.00 0.00 97 1014.8
20260903094134 74 217 0.0 0.0 0.00 0.00 0.00 97 1014.8
20260903094025 74 217 0.0 0.0 0.00 0.00 0.00 96 1014.8
20260903093937 74 217 0.0 0.0 0.00 0.00 0.00 97 1014.7
20260903093830 74 217 0.0 0.0 0.00 0.00 0.00 96 1014.7
20260903093723 74 217 0.0 0.0 0.00 0.00 0.00 97 1014.7
20260903093635 74 217 0.0 0.0 0.00 0.00 0.00 96 1014.7
20260903093525 74 217 0.0 0.0 0.00 0.00 0.00 96 1014.6
20260903093421 74 217 0.0 0.0 0.00 0.00 0.00 96 1014.7
20260903093333 74 217 0.0 0.0 0.00 0.00 0.00 96 1014.7
20260903093224 74 217 0.0 0.0 0.00 0.00 0.00 96 1014.7
20260903093146 74 217 0.0 0.0 0.00 0.00 0.00 96 1014.7
20260903093037 74 217 0.0 0.0 0.00 0.00 0.00 96 1014.7
20260903092949 74 217 0.0 0.0 0.00 0.00 0.00 96 1014.7
20260903092900 74 217 0.0 0.0 0.00 0.00 0.00 96 1014.6
20260903092731 74 217 0.0 0.0 0.00 0.00 0.00 96 1014.6
20260903092624 74 217 0.0 0.0 0.00 0.00 0.00 96 1014.6
20260903092521 74 217 0.0 0.0 0.00 0.00 0.00 96 1014.7
20260903092433 74 217 0.0 0.0 0.00 0.00 0.00 96 1014.7
20260903092324 74 217 0.0 0.0 0.00 0.00 0.00 96 1014.7
20260903092235 74 217 0.0 0.0 0.00 0.00 0.00 96 1014.7
20260903092146 74 217 0.0 0.0 0.00 0.00 0.00 96 1014.7
20260903092037 74 217 0.0 0.0 0.00 0.00 0.00 96 1014.6
20260903091928 74 217 0.0 0.0 0.00 0.00 0.00 96 1014.7
20260903091840 74 217 0.0 0.0 0.00 0.00 0.00 96 1014.7
20260903091751 74 217 0.0 0.0 0.00 0.00 0.00 96 1014.7
20260903091713 74 217 0.0 0.0 0.00 0.00 0.00 96 1014.6
20260903091604 74 217 0.0 0.0 0.00 0.00 0.00 97 1014.6
20260903091457 74 217 0.0 0.0 0.00 0.00 0.00 97 1014.6
20260903091349 74 217 0.0 0.0 0.00 0.00 0.00 97 1014.6
20260903091240 74 217 0.0 0.0 0.00 0.00 0.00 97 1014.6
20260903091132 74 217 0.0 0.0 0.00 0.00 0.00 97 1014.6
20260903091023 74 217 0.0 0.0 0.00 0.00 0.00 96 1014.6
20260903090935 74 217 0.0 0.0 0.00 0.00 0.00 96 1014.6
20260903090827 74 217 0.0 0.0 0.00 0.00 0.00 96 1014.7
20260903090739 74 217 0.0 0.0 0.00 0.00 0.00 96 1014.7
20260903090632 74 217 0.0 0.0 0.00 0.00 0.00 96 1014.7
20260903090547 74 217 0.0 0.0 0.00 0.00 0.00 96 1014.7
20260903090438 74 217 0.0 0.0 0.00 0.00 0.00 96 1014.7
20260903090331 74 217 0.0 0.0 0.00 0.00 0.00 96 1014.7
20260903090222 74 217 0.0 0.0 0.00 0.00 0.00 96 1014.6
20260903090144 74 217 0.0 0.0 0.00 0.00 0.00 96 1014.6
20260903090035 74 217 0.0 0.0 0.00 0.00 0.00 96 1014.6
20260903085947 74 217 0.0 0.0 0.00 0.00 0.00 96 1014.6
20260903085839 74 217 0.0 0.0 0.00 0.00 0.00 96 1014.7
20260903085751 74 217 0.0 0.0 0.00 0.00 0.00 96 1014.7
20260903085622 74 217 0.0 0.0 0.00 0.00 0.00 96 1014.6
20260903085537 74 217 0.0 0.0 0.00 0.00 0.00 96 1014.6
20260903085430 74 217 0.0 0.0 0.00 0.00 0.00 96 1014.7
20260903085341 74 217 0.0 0.0 0.00 0.00 0.00 96 1014.6
20260903085253 74 217 0.0 0.0 0.00 0.00 0.00 96 1014.6
20260903085145 74 217 0.0 0.0 0.00 0.00 0.00 96 1014.6
20260903085035 74 217 0.0 0.0 0.00 0.00 0.00 96 1014.6
20260903084926 74 217 0.0 0.0 0.00 0.00 0.00 96 1014.6
20260903084837 74 217 0.0 0.0 0.00 0.00 0.00 96 1014.4
20260903084750 74 217 0.0 0.0 0.00 0.00 0.00 96 1014.4
20260903084712 74 217 0.0 0.0 0.00 0.00 0.00 96 1014.5
20260903084542 74 217 0.0 0.0 0.00 0.00 0.00 96 1014.6
20260903084458 74 217 0.0 0.0 0.00 0.00 0.00 96 1014.6
20260903084329 74 217 0.0 0.0 0.00 0.00 0.00 96 1014.5
20260903084221 74 217 0.0 0.0 0.00 0.00 0.00 96 1014.5
20260903084133 74 217 0.0 0.0 0.00 0.00 0.00 96 1014.5
20260903084025 74 217 0.0 0.0 0.00 0.00 0.00 96 1014.6
20260903083938 74 217 0.0 0.0 0.00 0.00 0.00 96 1014.6
20260903083830 74 217 0.0 0.0 0.00 0.00 0.00 96 1014.6
20260903083722 74 217 0.0 0.0 0.00 0.00 0.00 96 1014.5
20260903083639 74 217 0.0 0.0 0.00 0.00 0.00 96 1014.5
20260903083531 74 217 0.0 0.0 0.00 0.00 0.00 96 1014.6
20260903083443 74 217 0.0 0.0 0.00 0.00 0.00 96 1014.6
20260903083334 74 217 0.0 0.0 0.00 0.00 0.00 96 1014.5
20260903083224 74 217 0.0 0.0 0.00 0.00 0.00 96 1014.6
20260903083146 74 217 0.0 0.0 0.00 0.00 0.00 96 1014.6
20260903083037 74 217 0.0 0.0 0.00 0.00 0.00 96 1014.6
20260903082930 74 217 0.0 0.0 0.00 0.00 0.00 96 1014.6
20260903082822 74 217 0.0 0.0 0.00 0.00 0.00 96 1014.6
20260903082738 74 217 0.0 0.0 0.00 0.00 0.00 96 1014.6
20260903082630 74 217 0.0 0.0 0.00 0.00 0.00 96 1014.7
20260903082522 74 217 0.0 0.0 0.00 0.00 0.00 96 1014.6
20260903082434 74 217 0.0 0.0 0.00 0.00 0.00 96 1014.6
20260903082347 75 217 0.0 0.0 0.00 0.00 0.00 96 1014.6
20260903082259 75 217 0.0 0.0 0.00 0.00 0.00 96 1014.7
20260903082130 75 217 0.0 0.0 0.00 0.00 0.00 96 1014.6
20260903082022 74 217 0.0 0.0 0.00 0.00 0.00 96 1014.6
20260903081934 74 217 0.0 0.0 0.00 0.00 0.00 96 1014.6
20260903081830 74 217 0.0 0.0 0.00 0.00 0.00 96 1014.6
20260903081742 74 217 0.0 0.0 0.00 0.00 0.00 96 1014.6
20260903081703 74 217 0.0 0.0 0.00 0.00 0.00 96 1014.6
20260903081555 74 217 0.0 0.0 0.00 0.00 0.00 96 1014.7
20260903081425 74 217 0.0 0.0 0.00 0.00 0.00 96 1014.6
20260903081337 74 217 0.0 0.0 0.00 0.00 0.00 96 1014.7
20260903081229 74 217 0.0 0.0 0.00 0.00 0.00 96 1014.6
20260903081141 74 217 0.0 0.0 0.00 0.00 0.00 95 1014.6
20260903081054 74 217 0.0 0.0 0.00 0.00 0.00 95 1014.6
20260903080929 74 217 0.0 0.0 0.00 0.00 0.00 95 1014.6
20260903080841 74 217 0.0 0.0 0.00 0.00 0.00 95 1014.6
20260903080732 74 217 0.0 0.0 0.00 0.00 0.00 95 1014.6
20260903080625 74 217 0.0 0.0 0.00 0.00 0.00 95 1014.6
20260903080536 74 217 0.0 0.0 0.00 0.00 0.00 95 1014.6
20260903080428 74 217 0.0 0.0 0.00 0.00 0.00 95 1014.6
20260903080339 74 217 0.0 0.0 0.00 0.00 0.00 95 1014.6
20260903080230 74 217 0.0 0.0 0.00 0.00 0.00 95 1014.6
20260903080153 74 217 0.0 0.0 0.00 0.00 0.00 95 1014.6
20260903080029 74 217 0.0 0.0 0.00 0.00 0.00 95 1014.6
20260903075922 74 217 0.0 0.0 0.00 0.00 0.00 95 1014.6
20260903075835 74 217 0.0 0.0 0.00 0.00 0.00 95 1014.6
20260903075746 74 217 0.0 0.0 0.00 0.00 0.00 95 1014.6
20260903075658 74 217 0.0 0.0 0.00 0.00 0.00 95 1014.6
20260903075528 74 217 0.0 0.0 0.00 0.00 0.00 95 1014.7
20260903075439 75 217 0.0 0.0 0.00 0.00 0.00 95 1014.6
20260903075331 75 217 0.0 0.0 0.00 0.00 0.00 95 1014.6
20260903075243 75 217 0.0 0.0 0.00 0.00 0.00 95 1014.6
20260903075159 75 217 0.0 0.0 0.00 0.00 0.00 95 1014.6
20260903075030 75 217 0.0 0.0 0.00 0.00 0.00 95 1014.7
20260903074942 75 217 0.0 0.0 0.00 0.00 0.00 95 1014.6
20260903074853 74 217 0.0 0.0 0.00 0.00 0.00 95 1014.6
20260903074724 74 217 0.0 0.0 0.00 0.00 0.00 95 1014.5
20260903074647 74 217 0.0 0.0 0.00 0.00 0.00 95 1014.6
20260903074539 74 217 0.0 0.0 0.00 0.00 0.00 95 1014.5
20260903074431 74 217 0.0 0.0 0.00 0.00 0.00 95 1014.6
20260903074323 75 217 0.0 0.0 0.00 0.00 0.00 95 1014.6
20260903074239 74 217 0.0 0.0 0.00 0.00 0.00 95 1014.4
20260903074131 75 217 0.0 0.0 0.00 0.00 0.00 95 1014.6
20260903074023 75 217 0.0 0.0 0.00 0.00 0.00 95 1014.6
20260903073935 75 217 0.0 0.0 0.00 0.00 0.00 95 1014.6
20260903073826 75 217 0.0 0.0 0.00 0.00 0.00 95 1014.6
20260903073739 75 217 0.0 0.0 0.00 0.00 0.00 95 1014.5
20260903073631 75 217 0.0 0.0 0.00 0.00 0.00 94 1014.5
20260903073523 75 217 0.0 0.0 0.00 0.00 0.00 94 1014.5
20260903073440 75 217 0.0 0.0 0.00 0.00 0.00 94 1014.6
20260903073333 75 217 0.0 0.0 0.00 0.00 0.00 94 1014.6
20260903073244 75 217 0.0 0.0 0.00 0.00 0.00 94 1014.6
20260903073144 75 217 0.0 0.0 0.00 0.00 0.00 94 1014.6
20260903073035 75 217 0.0 0.0 0.00 0.00 0.00 94 1014.5
20260903072928 75 217 0.0 0.0 0.00 0.00 0.00 94 1014.4
20260903072841 75 217 0.0 0.0 0.00 0.00 0.00 94 1014.6
20260903072732 75 217 0.0 0.0 0.00 0.00 0.00 94 1014.5
20260903072625 75 217 0.0 0.0 0.00 0.00 0.00 94 1014.5
20260903072542 75 217 0.0 0.0 0.00 0.00 0.00 94 1014.6
20260903072433 75 217 0.0 0.0 0.00 0.00 0.00 94 1014.4
20260903072345 75 217 0.0 0.0 0.00 0.00 0.00 94 1014.5
20260903072236 75 217 0.0 0.0 0.00 0.00 0.00 94 1014.5
20260903072128 75 217 0.0 0.0 0.00 0.00 0.00 94 1014.4
20260903072021 75 217 0.0 0.0 0.00 0.00 0.00 94 1014.5
20260903071932 75 217 0.0 0.0 0.00 0.00 0.00 94 1014.6
20260903071825 75 217 0.0 0.0 0.00 0.00 0.00 94 1014.5
20260903071736 75 217 0.0 0.0 0.00 0.00 0.00 94 1014.6
20260903071656 75 217 0.0 0.0 0.00 0.00 0.00 94 1014.6
20260903071530 75 217 0.0 0.0 0.00 0.00 0.00 94 1014.4
20260903071442 75 217 0.0 0.0 0.00 0.00 0.00 94 1014.4
20260903071333 75 217 0.0 0.0 0.00 0.00 0.00 94 1014.6
20260903071225 75 217 0.0 0.0 0.00 0.00 0.00 94 1014.6
20260903071136 75 217 0.0 0.0 0.00 0.00 0.00 94 1014.6
20260903071049 75 217 0.0 0.0 0.00 0.00 0.00 94 1014.6
20260903071001 75 217 0.0 0.0 0.00 0.00 0.00 94 1014.5
20260903070832 75 217 0.0 0.0 0.00 0.00 0.00 94 1014.5
20260903070724 75 217 0.0 0.0 0.00 0.00 0.00 94 1014.5
20260903070640 75 217 0.0 0.0 0.00 0.00 0.00 94 1014.5
20260903070551 75 217 0.0 0.0 0.00 0.00 0.00 94 1014.5
20260903070442 75 217 0.0 0.0 0.00 0.00 0.00 94 1014.4
20260903070354 75 217 0.0 0.0 0.00 0.00 0.00 94 1014.4
20260903070244 75 217 0.0 0.0 0.00 0.00 0.00 94 1014.5
20260903070207 75 217 0.0 0.0 0.00 0.00 0.00 94 1014.5
20260903070058 76 217 0.0 0.0 0.00 0.00 0.00 94 1014.5
20260903065949 76 217 0.0 0.0 0.00 0.00 0.00 94 1014.5
20260903065840 76 217 0.0 0.0 0.00 0.00 0.00 94 1014.5
20260903065731 76 217 0.0 0.0 0.00 0.00 0.00 94 1014.4
20260903065645 76 217 0.0 0.0 0.00 0.00 0.00 94 1014.5
20260903065537 76 217 0.0 0.0 0.00 0.00 0.00 94 1014.4
20260903065452 76 217 0.0 0.0 0.00 0.00 0.00 94 1014.4
20260903065323 76 217 0.0 0.0 0.00 0.00 0.00 94 1014.5
20260903065235 76 217 0.0 0.0 0.00 0.00 0.00 94 1014.5
20260903065127 76 217 0.0 0.0 0.00 0.00 0.00 94 1014.4
20260903065039 76 217 0.0 0.0 0.00 0.00 0.00 94 1014.5
20260903064931 76 217 0.0 0.0 0.00 0.00 0.00 93 1014.5
20260903064844 76 217 0.0 0.0 0.00 0.00 0.00 93 1014.5
20260903064756 76 217 0.0 0.0 0.00 0.00 0.00 93 1014.5
20260903064658 76 217 0.0 0.0 0.00 0.00 0.00 93 1014.5
20260903064534 76 217 0.0 0.0 0.00 0.00 0.00 93 1014.5
20260903064445 76 217 0.0 0.0 0.00 0.00 0.00 93 1014.6
20260903064336 76 217 0.0 0.0 0.00 0.00 0.00 93 1014.6
20260903064229 76 217 0.0 0.0 0.00 0.00 0.00 93 1014.5
20260903064121 76 217 0.0 0.0 0.00 0.00 0.00 93 1014.5
20260903064033 76 217 0.0 0.0 0.00 0.00 0.00 93 1014.6
20260903063925 76 217 0.0 0.0 0.00 0.00 0.00 93 1014.5
20260903063837 76 217 0.0 0.0 0.00 0.00 0.00 93 1014.6
20260903063728 76 217 0.0 0.0 0.00 0.00 0.00 93 1014.6
20260903063624 76 217 0.0 0.0 0.00 0.00 0.00 93 1014.6
20260903063536 76 217 0.0 0.0 0.00 0.00 0.00 93 1014.7
20260903063447 76 217 0.0 0.0 0.00 0.00 0.00 93 1014.6
20260903063357 76 217 0.0 0.0 0.00 0.00 0.00 93 1014.6
20260903063307 76 217 0.0 0.0 0.00 0.00 0.00 93 1014.6
20260903063208 76 217 0.0 0.0 0.00 0.00 0.00 93 1014.6
20260903063058 76 217 0.0 0.0 0.00 0.00 0.00 93 1014.6
20260903063009 76 217 0.0 0.0 0.00 0.00 0.00 93 1014.6
20260903062920 76 217 0.0 0.0 0.00 0.00 0.00 93 1014.5
20260903062811 76 217 0.0 0.0 0.00 0.00 0.00 93 1014.6
20260903062701 77 217 0.0 0.0 0.00 0.00 0.00 92 1014.5
20260903062536 77 217 0.0 0.0 0.00 0.00 0.00 92 1014.6
20260903062427 77 217 0.0 0.0 0.00 0.00 0.00 92 1014.5
20260903062340 77 217 0.0 0.0 0.00 0.00 0.00 92 1014.5
20260903062232 77 217 0.0 0.0 0.00 0.00 0.00 92 1014.6
20260903062125 77 217 0.0 0.0 0.00 0.00 0.00 92 1014.6
20260903062036 77 217 0.0 0.0 0.00 0.00 0.00 92 1014.6
20260903061948 77 217 0.0 0.0 0.00 0.00 0.00 92 1014.6
20260903061901 77 217 0.0 0.0 0.00 0.00 0.00 92 1014.6
20260903061812 77 217 0.0 0.0 0.00 0.00 0.00 92 1014.6
20260903061713 77 217 0.0 0.0 0.00 0.00 0.00 92 1014.7
20260903061609 77 217 0.0 0.0 0.00 0.00 0.00 92 1014.6
20260903061500 77 217 0.0 0.0 0.00 0.00 0.00 92 1014.6
20260903061351 77 217 0.0 0.0 0.00 0.00 0.00 92 1014.6
20260903061242 77 217 0.0 0.0 0.00 0.00 0.00 92 1014.6
20260903061153 77 217 0.0 0.0 0.00 0.00 0.00 92 1014.6
20260903061045 77 217 0.0 0.0 0.00 0.00 0.00 92 1014.6
20260903060937 77 217 0.0 0.0 0.00 0.00 0.00 92 1014.6
20260903060828 77 217 0.0 0.0 0.00 0.00 0.00 92 1014.6
20260903060740 77 217 0.0 0.0 0.00 0.00 0.00 92 1014.6
20260903060633 77 217 0.0 0.0 0.00 0.00 0.00 92 1014.6
20260903060530 78 217 0.0 0.0 0.00 0.00 0.00 92 1014.5
20260903060442 78 217 0.0 0.0 0.00 0.00 0.00 92 1014.6
20260903060333 78 217 0.0 0.0 0.00 0.00 0.00 91 1014.4
20260903060242 78 217 0.0 0.0 0.00 0.00 0.00 91 1014.6
20260903060204 78 217 0.0 0.0 0.00 0.00 0.00 91 1014.6
20260903060034 78 217 0.0 0.0 0.00 0.00 0.00 91 1014.5
20260903055947 78 217 0.0 0.0 0.00 0.00 0.00 91 1014.5
20260903055838 78 217 0.0 0.0 0.00 0.00 0.00 91 1014.5
20260903055750 78 217 0.0 0.0 0.00 0.00 0.00 91 1014.5
20260903055621 78 217 0.0 0.0 0.00 0.00 0.00 91 1014.6
20260903055532 78 217 0.0 0.0 0.00 0.00 0.00 91 1014.5
20260903055443 78 217 0.0 0.0 0.00 0.00 0.00 91 1014.6
20260903055336 78 217 0.0 0.0 0.00 0.00 0.00 91 1014.4
20260903055229 78 217 0.0 0.0 0.00 0.00 0.00 91 1014.6
20260903055140 78 217 0.0 0.0 0.00 0.00 0.00 91 1014.5
20260903055053 78 217 0.0 0.0 0.00 0.00 0.00 91 1014.5
20260903054926 78 217 0.0 0.0 0.00 0.00 0.00 91 1014.5
20260903054838 78 217 0.0 0.0 0.00 0.00 0.00 91 1014.5
20260903054731 78 217 0.0 0.0 0.00 0.00 0.00 91 1014.5
20260903054651 78 217 0.0 0.0 0.00 0.00 0.00 91 1014.5
20260903054542 78 217 0.0 0.0 0.00 0.00 0.00 91 1014.4
20260903054433 78 217 0.0 0.0 0.00 0.00 0.00 91 1014.5
20260903054349 78 217 0.0 0.0 0.00 0.00 0.00 90 1014.5
20260903054300 79 217 0.0 0.0 0.00 0.00 0.00 90 1014.4
20260903054151 79 217 0.0 0.0 0.00 0.00 0.00 90 1014.4
20260903054102 79 217 0.0 0.0 0.00 0.00 0.00 90 1014.4
20260903053953 79 217 0.0 0.0 0.00 0.00 0.00 90 1014.3
20260903053824 79 217 0.0 0.0 0.00 0.00 0.00 90 1014.4
20260903053737 79 217 0.0 0.0 0.00 0.00 0.00 90 1014.4
20260903053629 79 217 0.0 0.0 0.00 0.00 0.00 90 1014.5
20260903053539 79 217 0.0 0.0 0.00 0.00 0.00 90 1014.3
20260903053451 79 217 0.0 0.0 0.00 0.00 0.00 90 1014.3
20260903053327 79 217 0.0 0.0 0.00 0.00 0.00 90 1014.5
20260903053238 79 217 0.0 0.0 0.00 0.00 0.00 90 1014.4
20260903053201 79 217 0.0 0.0 0.00 0.00 0.00 90 1014.4
20260903053031 79 217 0.0 0.0 0.00 0.00 0.00 90 1014.3
20260903052924 79 217 0.0 0.0 0.00 0.00 0.00 90 1014.3
20260903052835 79 217 0.0 0.0 0.00 0.00 0.00 90 1014.4
20260903052747 79 217 0.0 0.0 0.00 0.00 0.00 90 1014.3
20260903052638 79 217 0.0 0.0 0.00 0.00 0.00 90 1014.4
20260903052529 79 217 0.0 0.0 0.00 0.00 0.00 90 1014.4
20260903052426 79 217 0.0 0.0 0.00 0.00 0.00 90 1014.4
20260903052337 79 217 0.0 0.0 0.00 0.00 0.00 90 1014.4
20260903052249 79 217 0.0 0.0 0.00 0.00 0.00 90 1014.4
20260903052200 79 217 0.0 0.0 0.00 0.00 0.00 90 1014.4
20260903052030 79 217 0.0 0.0 0.00 0.00 0.00 90 1014.4
20260903051922 80 217 0.0 0.0 0.00 0.00 0.00 90 1014.4
20260903051834 79 217 0.0 0.0 0.00 0.00 0.00 90 1014.4
20260903051745 80 217 0.0 0.0 0.00 0.00 0.00 90 1014.3
20260903051707 79 217 0.0 0.0 0.00 0.00 0.00 90 1014.3
20260903051533 79 217 0.0 0.0 0.00 0.00 0.00 90 1014.3
20260903051429 80 217 0.0 0.0 0.00 0.00 0.00 90 1014.3
20260903051321 80 217 0.0 0.0 0.00 0.00 0.00 90 1014.3
20260903051233 79 217 0.0 0.0 0.00 0.00 0.00 90 1014.3
20260903051125 79 217 0.0 0.0 0.00 0.00 0.00 90 1014.2
20260903051038 79 217 0.0 0.0 0.00 0.00 0.00 90 1014.3
20260903050929 80 217 0.0 0.0 0.00 0.00 0.00 90 1014.3
20260903050840 80 217 0.0 0.0 0.00 0.00 0.00 89 1014.3
20260903050733 80 217 0.0 0.0 0.00 0.00 0.00 89 1014.2
20260903050630 80 217 0.0 0.0 0.00 0.00 0.00 89 1014.3
20260903050522 80 217 0.0 0.0 0.00 0.00 0.00 89 1014.2
20260903050435 80 217 0.0 0.0 0.00 0.00 0.00 89 1014.2
20260903050326 80 217 0.0 0.0 0.00 0.00 0.00 89 1014.1
20260903050237 80 217 0.0 1.0 0.00 0.00 0.00 89 1014.2
20260903050159 80 217 0.0 1.0 0.00 0.00 0.00 89 1014.2
20260903050031 80 217 0.0 2.0 0.00 0.00 0.00 89 1014.2
20260903045922 80 217 0.0 2.0 0.00 0.00 0.00 89 1014.1
20260903045834 80 217 0.0 2.0 0.00 0.00 0.00 89 1014.1
20260903045729 80 217 0.0 2.0 0.00 0.00 0.00 89 1014.1
20260903045621 80 217 0.0 2.0 0.00 0.00 0.00 89 1014.1
20260903045533 80 217 0.0 3.0 0.00 0.00 0.00 89 1014.1
20260903045425 80 217 1.0 3.0 0.00 0.00 0.00 89 1014.2
20260903045337 80 217 1.0 3.0 0.00 0.00 0.00 89 1014.1
20260903045228 80 217 1.0 3.0 0.00 0.00 0.00 89 1014.2
20260903045140 80 217 1.0 3.0 0.00 0.00 0.00 89 1014.2
20260903045032 80 217 1.0 3.0 0.00 0.00 0.00 89 1014.2
20260903044929 80 217 1.0 3.0 0.00 0.00 0.00 89 1014.1
20260903044821 80 217 1.0 3.0 0.00 0.00 0.00 89 1014.1
20260903044733 80 217 0.0 3.0 0.00 0.00 0.00 89 1014.1
20260903044655 80 217 0.0 0.0 0.00 0.00 0.00 89 1014.1
20260903044525 80 217 0.0 0.0 0.00 0.00 0.00 89 1014.2
20260903044438 80 217 0.0 2.0 0.00 0.00 0.00 89 1014.2
20260903044329 80 217 0.0 3.0 0.00 0.00 0.00 89 1014.1
20260903044221 80 217 0.0 3.0 0.00 0.00 0.00 89 1014.1
20260903044137 80 217 0.0 3.0 0.00 0.00 0.00 89 1014.1
20260903044029 80 217 0.0 3.0 0.00 0.00 0.00 89 1014.1
20260903043921 80 217 0.0 3.0 0.00 0.00 0.00 89 1014.1
20260903043832 80 217 0.0 3.0 0.00 0.00 0.00 89 1014.0
20260903043725 80 217 0.0 3.0 0.00 0.00 0.00 89 1014.1
20260903043638 80 217 1.0 3.0 0.00 0.00 0.00 89 1014.1
20260903043531 80 217 2.0 3.0 0.00 0.00 0.00 89 1014.1
20260903043442 80 217 2.0 3.0 0.00 0.00 0.00 89 1014.1
20260903043354 80 217 2.0 3.0 0.00 0.00 0.00 89 1014.0
20260903043228 80 217 2.0 3.0 0.00 0.00 0.00 89 1014.0
20260903043151 80 217 2.0 3.0 0.00 0.00 0.00 89 1014.0
20260903043043 80 217 2.0 3.0 0.00 0.00 0.00 89 1014.1
20260903042954 80 217 2.0 3.0 0.00 0.00 0.00 89 1014.0
20260903042824 80 217 2.0 3.0 0.00 0.00 0.00 89 1014.0
20260903042737 80 217 2.0 3.0 0.00 0.00 0.00 89 1014.1
20260903042630 80 217 1.0 3.0 0.00 0.00 0.00 89 1013.9
20260903042521 80 217 1.0 3.0 0.00 0.00 0.00 89 1014.0
20260903042433 80 217 1.0 3.0 0.00 0.00 0.00 89 1014.0
20260903042331 80 217 2.0 3.0 0.00 0.00 0.00 89 1014.0
20260903042243 80 217 1.0 3.0 0.00 0.00 0.00 89 1014.0
20260903042134 80 217 1.0 3.0 0.00 0.00 0.00 89 1013.9
20260903042025 80 217 1.0 3.0 0.00 0.00 0.00 89 1014.0
20260903041938 80 217 2.0 3.0 0.00 0.00 0.00 89 1014.0
20260903041830 80 217 2.0 3.0 0.00 0.00 0.00 89 1013.9
20260903041743 80 217 2.0 3.0 0.00 0.00 0.00 89 1014.0
20260903041705 80 217 2.0 3.0 0.00 0.00 0.00 89 1014.0
20260903041556 80 217 1.0 3.0 0.00 0.00 0.00 89 1013.9
20260903041431 80 217 0.0 3.0 0.00 0.00 0.00 89 1014.0
20260903041322 80 217 0.0 4.0 0.00 0.00 0.00 90 1013.9
20260903041234 80 217 0.0 4.0 0.00 0.00 0.00 90 1013.9
20260903041126 80 217 1.0 4.0 0.00 0.00 0.00 90 1013.9
20260903041038 80 217 1.0 4.0 0.00 0.00 0.00 90 1013.9
20260903040930 80 217 1.0 4.0 0.00 0.00 0.00 90 1013.9
20260903040822 80 217 2.0 4.0 0.00 0.00 0.00 90 1014.0
20260903040735 80 217 2.0 4.0 0.00 0.00 0.00 90 1013.9
20260903040646 80 237 1.0 4.0 0.00 0.00 0.00 90 1014.0
20260903040521 80 206 1.0 3.0 0.00 0.00 0.00 90 1014.0
20260903040433 80 206 0.0 3.0 0.00 0.00 0.00 90 1014.0
20260903040345 80 206 0.0 3.0 0.00 0.00 0.00 90 1013.9
20260903040257 80 206 0.0 3.0 0.00 0.00 0.00 90 1013.9
20260903040216 80 206 1.0 3.0 0.00 0.00 0.00 90 1013.9
20260903040107 80 206 2.0 3.0 0.00 0.00 0.00 90 1014.0
20260903035929 80 206 1.0 3.0 0.00 0.00 0.00 90 1013.9
20260903035821 80 206 1.0 5.0 0.00 0.00 0.00 91 1014.0
20260903035733 80 206 2.0 5.0 0.00 0.00 0.00 91 1013.9
20260903035629 80 206 1.0 5.0 0.00 0.00 0.00 91 1013.9
20260903035540 80 206 1.0 5.0 0.00 0.00 0.00 91 1013.9
20260903035433 80 206 2.0 5.0 0.00 0.00 0.00 91 1014.0
20260903035326 80 258 1.0 5.0 0.00 0.00 0.00 91 1013.9
20260903035239 80 236 1.0 5.0 0.00 0.00 0.00 91 1013.9
20260903035130 80 236 2.0 5.0 0.00 0.00 0.00 91 1013.8
20260903035021 80 236 1.0 5.0 0.00 0.00 0.00 91 1013.9
20260903034933 80 250 0.0 3.0 0.00 0.00 0.00 91 1013.9
20260903034830 80 249 0.0 0.0 0.00 0.00 0.00 91 1013.9
20260903034721 80 250 0.0 0.0 0.00 0.00 0.00 91 1013.9
20260903034644 80 250 0.0 0.0 0.00 0.00 0.00 91 1013.9
20260903034536 80 250 0.0 0.0 0.00 0.00 0.00 91 1013.9
20260903034449 80 250 0.0 0.0 0.00 0.00 0.00 91 1013.9
20260903034340 80 250 0.0 0.0 0.00 0.00 0.00 91 1013.9
20260903034231 80 250 0.0 0.0 0.00 0.00 0.00 91 1013.9
20260903034143 80 250 0.0 0.0 0.00 0.00 0.00 91 1013.9
20260903034034 80 250 0.0 0.0 0.00 0.00 0.00 91 1013.9
20260903033925 80 250 0.0 0.0 0.00 0.00 0.00 91 1014.0
20260903033821 80 250 0.0 0.0 0.00 0.00 0.00 91 1013.9
20260903033732 80 250 0.0 0.0 0.00 0.00 0.00 91 1014.0
20260903033624 80 250 0.0 0.0 0.00 0.00 0.00 90 1014.0
20260903033537 80 250 0.0 0.0 0.00 0.00 0.00 90 1014.0
20260903033428 80 250 0.0 0.0 0.00 0.00 0.00 90 1013.9
20260903033341 80 250 0.0 0.0 0.00 0.00 0.00 90 1014.0
20260903033232 80 250 0.0 0.0 0.00 0.00 0.00 90 1014.0
20260903033153 80 250 0.0 0.0 0.00 0.00 0.00 90 1014.0
20260903033044 80 250 0.0 0.0 0.00 0.00 0.00 90 1013.9
20260903032959 80 250 0.0 0.0 0.00 0.00 0.00 90 1014.0
20260903032831 80 250 0.0 0.0 0.00 0.00 0.00 90 1014.0
20260903032724 80 249 0.0 0.0 0.00 0.00 0.00 90 1014.0
20260903032636 80 250 0.0 0.0 0.00 0.00 0.00 90 1014.0
20260903032529 80 250 0.0 0.0 0.00 0.00 0.00 90 1014.0
20260903032441 80 250 0.0 0.0 0.00 0.00 0.00 90 1014.0
20260903032354 80 250 0.0 0.0 0.00 0.00 0.00 90 1014.0
20260903032224 80 250 0.0 0.0 0.00 0.00 0.00 90 1014.0
20260903032136 80 250 0.0 0.0 0.00 0.00 0.00 90 1014.0
20260903032033 80 250 0.0 0.0 0.00 0.00 0.00 90 1013.9
20260903031925 80 250 0.0 0.0 0.00 0.00 0.00 90 1014.1
20260903031838 80 250 0.0 0.0 0.00 0.00 0.00 90 1014.0
20260903031740 80 250 0.0 0.0 0.00 0.00 0.00 90 1013.9
20260903031641 80 250 0.0 0.0 0.00 0.00 0.00 90 1014.0
20260903031533 80 250 0.0 0.0 0.00 0.00 0.00 90 1013.9
20260903031424 80 250 0.0 0.0 0.00 0.00 0.00 90 1013.9
20260903031337 80 250 0.0 0.0 0.00 0.00 0.00 90 1013.9
20260903031233 80 250 0.0 0.0 0.00 0.00 0.00 90 1013.9
20260903031125 80 250 0.0 0.0 0.00 0.00 0.00 90 1014.0
20260903031037 80 250 0.0 0.0 0.00 0.00 0.00 90 1014.0
20260903030929 80 250 0.0 0.0 0.00 0.00 0.00 90 1014.0
20260903030821 80 250 0.0 0.0 0.00 0.00 0.00 90 1014.0
20260903030734 80 250 0.0 0.0 0.00 0.00 0.00 90 1014.0
20260903030646 80 250 0.0 0.0 0.00 0.00 0.00 90 1014.0
20260903030559 80 250 0.0 0.0 0.00 0.00 0.00 90 1014.0
20260903030510 80 249 0.0 0.0 0.00 0.00 0.00 90 1014.0
20260903030401 80 250 0.0 0.0 0.00 0.00 0.00 90 1014.0
20260903030318 80 250 0.0 0.0 0.00 0.00 0.00 90 1014.0
20260903030218 80 250 0.0 0.0 0.00 0.00 0.00 90 1014.0
20260903030027 80 250 0.0 0.0 0.00 0.00 0.00 90 1014.0
20260903025940 80 250 0.0 2.0 0.00 0.00 0.00 90 1014.0
20260903025833 80 249 0.0 2.0 0.00 0.00 0.00 90 1014.0
20260903025746 80 250 0.0 2.0 0.00 0.00 0.00 90 1014.0
20260903025657 80 250 0.0 2.0 0.00 0.00 0.00 90 1014.0
20260903025527 80 250 0.0 2.0 0.00 0.00 0.00 90 1014.1
20260903025440 80 250 0.0 2.0 0.00 0.00 0.00 90 1014.0
20260903025330 80 250 0.0 2.0 0.00 0.00 0.00 90 1014.0
20260903025225 80 249 1.0 2.0 0.00 0.00 0.00 90 1014.1
20260903025137 80 250 1.0 2.0 0.00 0.00 0.00 90 1014.1
20260903025049 80 250 1.0 2.0 0.00 0.00 0.00 90 1014.1
20260903024940 80 250 1.0 2.0 0.00 0.00 0.00 90 1014.0
20260903024833 80 250 1.0 2.0 0.00 0.00 0.00 90 1014.0
20260903024726 80 250 1.0 1.0 0.00 0.00 0.00 90 1014.1
20260903024648 80 250 1.0 1.0 0.00 0.00 0.00 90 1014.1
20260903024539 80 250 1.0 1.0 0.00 0.00 0.00 90 1014.1
20260903024430 80 250 0.0 1.0 0.00 0.00 0.00 89 1014.1
20260903024326 80 250 0.0 0.0 0.00 0.00 0.00 89 1014.1
20260903024236 80 249 0.0 0.0 0.00 0.00 0.00 89 1014.1
20260903024149 80 250 0.0 0.0 0.00 0.00 0.00 89 1014.1
20260903024021 80 250 0.0 0.0 0.00 0.00 0.00 89 1014.2
20260903023933 80 250 0.0 0.0 0.00 0.00 0.00 89 1014.1
20260903023844 80 250 0.0 0.0 0.00 0.00 0.00 89 1014.2
20260903023734 80 250 0.0 0.0 0.00 0.00 0.00 89 1014.2
20260903023627 80 250 0.0 0.0 0.00 0.00 0.00 89 1014.2
20260903023539 80 250 0.0 0.0 0.00 0.00 0.00 89 1014.0
20260903023450 80 250 0.0 0.0 0.00 0.00 0.00 89 1014.1
20260903023407 80 250 0.0 0.0 0.00 0.00 0.00 89 1014.1
20260903023320 80 249 0.0 0.0 0.00 0.00 0.00 89 1014.0
20260903023220 80 250 0.0 0.0 0.00 0.00 0.00 89 1014.0
20260903023111 80 250 0.0 0.0 0.00 0.00 0.00 89 1014.0
20260903023023 80 250 0.0 0.0 0.00 0.00 0.00 89 1014.0
20260903022913 80 250 0.0 0.0 0.00 0.00 0.00 89 1014.0
20260903022824 80 250 0.0 0.0 0.00 0.00 0.00 89 1014.0
20260903022655 80 250 0.0 0.0 0.00 0.00 0.00 89 1014.0
20260903022607 80 250 0.0 0.0 0.00 0.00 0.00 89 1014.0
20260903022459 80 249 0.0 0.0 0.00 0.00 0.00 89 1014.0
20260903022330 80 250 0.0 0.0 0.00 0.00 0.00 89 1014.0
20260903022226 80 250 0.0 0.0 0.00 0.00 0.00 89 1014.0
20260903022137 80 250 0.0 0.0 0.00 0.00 0.00 89 1014.0
20260903022029 80 250 0.0 0.0 0.00 0.00 0.00 89 1014.0
20260903021941 80 250 0.0 0.0 0.00 0.00 0.00 89 1014.1
20260903021853 80 250 0.0 0.0 0.00 0.00 0.00 88 1014.0
20260903021745 80 249 0.0 0.0 0.00 0.00 0.00 88 1014.1
20260903021707 80 250 0.0 0.0 0.00 0.00 0.00 88 1014.1
20260903021558 80 250 0.0 0.0 0.00 0.00 0.00 88 1014.1
20260903021509 80 250 0.0 0.0 0.00 0.00 0.00 88 1014.1
20260903021400 81 250 0.0 0.0 0.00 0.00 0.00 88 1014.0
20260903021230 81 250 0.0 0.0 0.00 0.00 0.00 88 1014.1
20260903021146 81 250 0.0 0.0 0.00 0.00 0.00 88 1014.1
20260903021058 81 250 0.0 0.0 0.00 0.00 0.00 88 1014.1
20260903021011 81 250 0.0 0.0 0.00 0.00 0.00 88 1014.1
20260903020901 81 250 0.0 0.0 0.00 0.00 0.00 88 1014.1
20260903020731 81 250 0.0 0.0 0.00 0.00 0.00 88 1014.1
20260903020623 81 250 0.0 0.0 0.00 0.00 0.00 88 1014.1
20260903020535 81 250 0.0 0.0 0.00 0.00 0.00 87 1014.2
20260903020427 81 249 0.0 0.0 0.00 0.00 0.00 87 1014.1
20260903020338 81 250 0.0 2.0 0.00 0.00 0.00 87 1014.2
20260903020232 81 250 0.0 2.0 0.00 0.00 0.00 87 1014.1
20260903020154 81 249 0.0 2.0 0.00 0.00 0.00 87 1014.1
20260903020025 81 250 0.0 2.0 0.00 0.00 0.00 87 1014.1
20260903015936 81 250 0.0 2.0 0.00 0.00 0.00 87 1014.1
20260903015828 81 250 0.0 2.0 0.00 0.00 0.00 87 1014.0
20260903015740 81 249 0.0 2.0 0.00 0.00 0.00 87 1014.0
20260903015652 81 249 0.0 2.0 0.00 0.00 0.00 87 1014.0
20260903015605 81 250 0.0 2.0 0.00 0.00 0.00 86 1014.0
20260903015516 81 250 0.0 1.0 0.00 0.00 0.00 86 1013.9
20260903015407 81 250 0.0 1.0 0.00 0.00 0.00 86 1014.0
20260903015257 81 250 0.0 1.0 0.00 0.00 0.00 86 1014.0
20260903015152 81 250 0.0 1.0 0.00 0.00 0.00 86 1014.0
20260903015043 81 250 0.0 1.0 0.00 0.00 0.00 86 1014.0
20260903014933 81 250 0.0 1.0 0.00 0.00 0.00 86 1013.9
20260903014826 81 250 0.0 1.0 0.00 0.00 0.00 86 1014.0
20260903014738 81 249 0.0 1.0 0.00 0.00 0.00 85 1014.0
20260903014700 81 250 0.0 1.0 0.00 0.00 0.00 85 1014.0
20260903014532 81 250 0.0 1.0 0.00 0.00 0.00 85 1013.9
20260903014423 82 249 0.0 1.0 0.00 0.00 0.00 85 1013.9
20260903014335 82 249 0.0 1.0 0.00 0.00 0.00 85 1013.9
20260903014231 82 250 0.0 1.0 0.00 0.00 0.00 85 1013.9
20260903014142 82 250 0.0 1.0 0.00 0.00 0.00 85 1013.9
20260903014054 82 249 0.0 0.0 0.00 0.00 0.00 85 1014.0
20260903013925 82 250 0.0 0.0 0.00 0.00 0.00 85 1014.0
20260903013837 82 249 0.0 0.0 0.00 0.00 0.00 85 1013.9
20260903013749 82 250 0.0 0.0 0.00 0.00 0.00 84 1014.0
20260903013640 82 250 0.0 1.0 0.00 0.00 0.00 84 1014.0
20260903013553 82 250 0.0 1.0 0.00 0.00 0.00 84 1013.9
20260903013443 82 250 0.0 1.0 0.00 0.00 0.00 84 1014.0
20260903013334 82 250 0.0 1.0 0.00 0.00 0.00 84 1013.9
20260903013245 82 250 0.0 1.0 0.00 0.00 0.00 84 1013.9
20260903013207 82 250 0.0 1.0 0.00 0.00 0.00 84 1013.9
20260903013102 82 250 0.0 1.0 0.00 0.00 0.00 84 1013.9
20260903012953 82 250 0.0 1.0 0.00 0.00 0.00 84 1013.9
20260903012844 82 250 0.0 1.0 0.00 0.00 0.00 84 1013.9
20260903012757 82 250 0.0 1.0 0.00 0.00 0.00 84 1013.9
20260903012648 82 249 0.0 1.0 0.00 0.00 0.00 84 1013.9
20260903012538 82 250 0.0 1.0 0.00 0.00 0.00 83 1013.9
20260903012449 82 250 0.0 0.0 0.00 0.00 0.00 83 1013.9
20260903012401 83 250 0.0 0.0 0.00 0.00 0.00 83 1013.8
20260903012232 83 250 0.0 0.0 0.00 0.00 0.00 83 1013.8
20260903012124 83 250 0.0 0.0 0.00 0.00 0.00 83 1013.8
20260903012037 83 250 0.0 0.0 0.00 0.00 0.00 83 1013.8
20260903011954 83 250 0.0 0.0 0.00 0.00 0.00 83 1013.8
20260903011904 83 250 0.0 0.0 0.00 0.00 0.00 83 1013.8
20260903011756 83 250 0.0 0.0 0.00 0.00 0.00 82 1013.7
20260903011659 83 250 0.0 0.0 0.00 0.00 0.00 82 1013.7
20260903011530 83 249 0.0 0.0 0.00 0.00 0.00 82 1013.8
20260903011422 83 250 0.0 0.0 0.00 0.00 0.00 82 1013.7
20260903011334 83 250 0.0 0.0 0.00 0.00 0.00 82 1013.6
20260903011246 83 250 0.0 0.0 0.00 0.00 0.00 82 1013.6
20260903011138 83 249 0.0 0.0 0.00 0.00 0.00 82 1013.5
20260903011029 83 250 0.0 0.0 0.00 0.00 0.00 82 1013.6
20260903010945 83 249 0.0 0.0 0.00 0.00 0.00 82 1013.7
20260903010857 83 250 0.0 0.0 0.00 0.00 0.00 82 1013.6
20260903010729 83 250 0.0 0.0 0.00 0.00 0.00 82 1013.5
20260903010641 83 250 0.0 0.0 0.00 0.00 0.00 82 1013.5
20260903010533 83 250 0.0 0.0 0.00 0.00 0.00 82 1013.5
20260903010425 83 250 0.0 0.0 0.00 0.00 0.00 82 1013.5
20260903010336 83 250 0.0 0.0 0.00 0.00 0.00 82 1013.5
20260903010246 83 249 0.0 0.0 0.00 0.00 0.00 82 1013.5
20260903010208 83 250 0.0 0.0 0.00 0.00 0.00 82 1013.5
20260903010024 83 250 0.0 1.0 0.00 0.00 0.00 82 1013.5
20260903005937 83 250 0.0 1.0 0.00 0.00 0.00 82 1013.5
20260903005828 83 250 0.0 1.0 0.00 0.00 0.00 82 1013.4
20260903005740 83 250 0.0 1.0 0.00 0.00 0.00 82 1013.3
20260903005632 83 250 0.0 1.0 0.00 0.00 0.00 82 1013.4
20260903005523 83 250 0.0 1.0 0.00 0.00 0.00 82 1013.4
20260903005435 83 250 0.0 1.0 0.00 0.00 0.00 82 1013.4
20260903005328 83 250 0.0 1.0 0.00 0.00 0.00 82 1013.3
20260903005241 84 250 0.0 1.0 0.00 0.00 0.00 82 1013.3
20260903005156 84 250 0.0 1.0 0.00 0.00 0.00 81 1013.3
20260903005108 84 250 0.0 1.0 0.00 0.00 0.00 81 1013.3
20260903004958 84 250 0.0 1.0 0.00 0.00 0.00 81 1013.4
20260903004828 84 250 0.0 1.0 0.00 0.00 0.00 81 1013.3
20260903004739 84 250 0.0 1.0 0.00 0.00 0.00 81 1013.4
20260903004700 84 250 0.0 1.0 0.00 0.00 0.00 81 1013.4
20260903004532 84 249 0.0 1.0 0.00 0.00 0.00 81 1013.2
20260903004425 84 249 0.0 2.0 0.00 0.00 0.00 81 1013.3
20260903004337 84 250 0.0 2.0 0.00 0.00 0.00 81 1013.2
20260903004234 84 250 0.0 2.0 0.00 0.00 0.00 81 1013.2
20260903004126 84 250 0.0 2.0 0.00 0.00 0.00 80 1013.1
20260903004038 84 250 0.0 2.0 0.00 0.00 0.00 80 1013.1
20260903003950 84 249 0.0 2.0 0.00 0.00 0.00 80 1013.1
20260903003840 84 250 0.0 2.0 0.00 0.00 0.00 80 1013.1
20260903003731 84 250 0.0 2.0 0.00 0.00 0.00 80 1013.2
20260903003623 84 250 0.0 2.0 0.00 0.00 0.00 80 1013.2
20260903003535 84 250 0.0 2.0 0.00 0.00 0.00 80 1013.2
20260903003428 84 250 0.0 1.0 0.00 0.00 0.00 80 1013.1
20260903003344 84 250 0.0 1.0 0.00 0.00 0.00 80 1013.2
20260903003256 84 250 0.0 1.0 0.00 0.00 0.00 80 1013.1
20260903003156 85 250 0.0 1.0 0.00 0.00 0.00 80 1013.1
20260903003048 85 250 0.0 1.0 0.00 0.00 0.00 80 1013.2
20260903002958 85 250 0.0 2.0 0.00 0.00 0.00 79 1013.2
20260903002830 85 250 0.0 2.0 0.00 0.00 0.00 79 1013.2
20260903002723 85 230 0.0 2.0 0.00 0.00 0.00 79 1013.1
20260903002634 85 230 0.0 2.0 0.00 0.00 0.00 79 1013.1
20260903002548 85 230 0.0 3.0 0.00 0.00 0.00 79 1013.2
20260903002439 85 230 0.0 3.0 0.00 0.00 0.00 79 1013.1
20260903002333 85 230 0.0 3.0 0.00 0.00 0.00 79 1013.1
20260903002245 85 230 1.0 3.0 0.00 0.00 0.00 79 1013.1
20260903002157 85 230 0.0 4.0 0.00 0.00 0.00 78 1013.1
20260903002049 85 230 0.0 4.0 0.00 0.00 0.00 78 1013.1
20260903002000 86 230 1.0 4.0 0.00 0.00 0.00 78 1013.1
20260903001851 86 230 2.0 4.0 0.00 0.00 0.00 78 1013.1
20260903001803 86 230 2.0 4.0 0.00 0.00 0.00 78 1013.1
20260903001704 86 230 2.0 4.0 0.00 0.00 0.00 78 1013.1
20260903001555 86 230 1.0 4.0 0.00 0.00 0.00 78 1013.1
20260903001427 86 230 1.0 4.0 0.00 0.00 0.00 78 1013.1
20260903001338 86 230 2.0 4.0 0.00 0.00 0.00 77 1013.1
20260903001250 86 248 2.0 4.0 0.00 0.00 0.00 77 1013.1
20260903001125 86 207 1.0 4.0 0.00 0.00 0.00 77 1013.2
20260903001036 86 219 1.0 4.0 0.00 0.00 0.00 77 1013.1
20260903000928 86 219 2.0 4.0 0.00 0.00 0.00 77 1013.2
20260903000839 86 219 2.0 4.0 0.00 0.00 0.00 77 1013.2
20260903000731 86 219 2.0 4.0 0.00 0.00 0.00 77 1013.3
20260903000623 86 219 2.0 4.0 0.00 0.00 0.00 77 1013.2
20260903000535 86 255 2.0 4.0 0.00 0.00 0.00 77 1013.2
20260903000427 86 214 1.0 3.0 0.00 0.00 0.00 77 1013.3
20260903000344 86 214 1.0 3.0 0.00 0.00 0.00 77 1013.3
20260903000234 87 214 2.0 3.0 0.00 0.00 0.00 77 1013.3
20260903000156 87 214 1.0 3.0 0.00 0.00 0.00 77 1013.3
20260903000047 87 214 1.0 4.0 0.00 0.00 0.00 77 1013.2
20260902235938 87 214 1.0 4.0 0.00 0.00 0.00 77 1013.3
20260902235831 87 214 1.0 4.0 0.00 0.00 0.00 77 1013.3
20260902235723 87 214 1.0 4.0 0.00 0.00 0.00 77 1013.2
20260902235634 87 214 1.0 4.0 0.00 0.00 0.00 76 1013.2
20260902235527 87 214 2.0 4.0 0.00 0.00 0.00 76 1013.3
20260902235423 87 214 2.0 4.0 0.00 0.00 0.00 76 1013.3
20260902235335 87 214 2.0 4.0 0.00 0.00 0.00 76 1013.3
20260902235228 87 214 2.0 4.0 0.00 0.00 0.00 76 1013.3
20260902235121 87 214 2.0 3.0 0.00 0.00 0.00 76 1013.4
20260902235033 87 214 2.0 3.0 0.00 0.00 0.00 76 1013.3
20260902234924 87 214 2.0 3.0 0.00 0.00 0.00 76 1013.3
20260902234836 87 214 2.0 3.0 0.00 0.00 0.00 76 1013.3
20260902234749 87 259 2.0 3.0 0.00 0.00 0.00 75 1013.2
20260902234712 87 220 2.0 3.0 0.00 0.00 0.00 75 1013.2
20260902234521 88 251 2.0 4.0 0.00 0.00 0.00 75 1013.3
20260902234438 88 251 2.0 4.0 0.00 0.00 0.00 75 1013.3
20260902234330 88 254 2.0 4.0 0.00 0.00 0.00 75 1013.3
20260902234221 88 274 1.0 4.0 0.00 0.00 0.00 75 1013.3
20260902234134 88 261 1.0 4.0 0.00 0.00 0.00 75 1013.4
20260902234027 88 157 2.0 4.0 0.00 0.00 0.00 75 1013.2
20260902233939 88 228 2.0 4.0 0.00 0.00 0.00 75 1013.3
20260902233831 88 235 1.0 4.0 0.00 0.00 0.00 75 1013.3
20260902233743 88 235 2.0 4.0 0.00 0.00 0.00 75 1013.3
20260902233655 88 235 2.0 3.0 0.00 0.00 0.00 74 1013.3
20260902233550 88 235 1.0 3.0 0.00 0.00 0.00 74 1013.3
20260902233422 89 239 1.0 3.0 0.00 0.00 0.00 74 1013.2
20260902233334 89 223 1.0 7.0 0.00 0.00 0.00 74 1013.3
20260902233224 89 224 2.0 7.0 0.00 0.00 0.00 74 1013.4
20260902233146 89 224 2.0 7.0 0.00 0.00 0.00 74 1013.3
20260902233036 89 224 2.0 7.0 0.00 0.00 0.00 74 1013.3
20260902232947 89 257 2.0 7.0 0.00 0.00 0.00 73 1013.3
20260902232900 89 223 2.0 7.0 0.00 0.00 0.00 74 1013.3
20260902232731 89 294 1.0 7.0 0.00 0.00 0.00 73 1013.3
20260902232626 89 268 2.0 7.0 0.00 0.00 0.00 73 1013.3
20260902232538 89 214 2.0 7.0 0.00 0.00 0.00 73 1013.4
20260902232450 89 221 2.0 5.0 0.00 0.00 0.00 73 1013.4
20260902232321 90 226 2.0 5.0 0.00 0.00 0.00 73 1013.3
20260902232233 90 226 2.0 5.0 0.00 0.00 0.00 73 1013.4
20260902232124 90 226 2.0 5.0 0.00 0.00 0.00 72 1013.3
20260902232035 90 226 2.0 5.0 0.00 0.00 0.00 73 1013.3
20260902231925 90 201 2.0 4.0 0.00 0.00 0.00 72 1013.3
20260902231837 90 201 1.0 4.0 0.00 0.00 0.00 72 1013.4
20260902231727 90 201 0.0 4.0 0.00 0.00 0.00 72 1013.3
20260902231654 90 201 1.0 4.0 0.00 0.00 0.00 72 1013.3
20260902231544 90 201 1.0 4.0 0.00 0.00 0.00 72 1013.3
20260902231457 90 201 2.0 4.0 0.00 0.00 0.00 72 1013.4
20260902231348 90 201 2.0 4.0 0.00 0.00 0.00 71 1013.4
20260902231300 90 250 2.0 4.0 0.00 0.00 0.00 71 1013.4
20260902231131 91 232 3.0 5.0 0.00 0.00 0.00 71 1013.4
20260902231024 91 223 1.0 5.0 0.00 0.00 0.00 71 1013.4
20260902230937 91 263 1.0 5.0 0.00 0.00 0.00 71 1013.5
20260902230828 91 217 0.0 5.0 0.00 0.00 0.00 71 1013.4
20260902230740 91 219 0.0 7.0 0.00 0.00 0.00 71 1013.4
20260902230656 91 192 1.0 7.0 0.00 0.00 0.00 71 1013.4
20260902230548 91 192 2.0 7.0 0.00 0.00 0.00 71 1013.4
20260902230438 91 257 2.0 7.0 0.00 0.00 0.00 71 1013.4
20260902230331 91 219 1.0 7.0 0.00 0.00 0.00 71 1013.4
20260902230241 91 276 1.0 7.0 0.00 0.00 0.00 71 1013.4
20260902230203 91 155 2.0 7.0 0.00 0.00 0.00 71 1013.4
20260902230034 91 221 2.0 7.0 0.00 0.00 0.00 71 1013.4
20260902225927 91 131 3.0 8.0 0.00 0.00 0.00 71 1013.4
20260902225838 91 196 3.0 8.0 0.00 0.00 0.00 71 1013.4
20260902225730 91 259 2.0 8.0 0.00 0.00 0.00 70 1013.4
20260902225646 91 250 2.0 8.0 0.00 0.00 0.00 71 1013.4
20260902225537 91 219 2.0 8.0 0.00 0.00 0.00 70 1013.4
20260902225430 91 225 2.0 8.0 0.00 0.00 0.00 70 1013.4
20260902225342 91 244 3.0 8.0 0.00 0.00 0.00 70 1013.4
20260902225234 91 296 4.0 8.0 0.00 0.00 0.00 70 1013.4
20260902225126 91 220 3.0 8.0 0.00 0.00 0.00 70 1013.4
20260902225038 91 202 2.0 7.0 0.00 0.00 0.00 70 1013.4
20260902224949 91 185 2.0 5.0 0.00 0.00 0.00 70 1013.4
20260902224901 91 229 2.0 5.0 0.00 0.00 0.00 70 1013.4
20260902224813 91 263 2.0 5.0 0.00 0.00 0.00 70 1013.4
20260902224653 91 219 3.0 9.0 0.00 0.00 0.00 70 1013.4
20260902224548 91 216 3.0 9.0 0.00 0.00 0.00 70 1013.4
20260902224439 91 207 2.0 9.0 0.00 0.00 0.00 70 1013.4
20260902224331 91 240 2.0 9.0 0.00 0.00 0.00 70 1013.4
20260902224224 91 219 2.0 9.0 0.00 0.00 0.00 70 1013.4
20260902224136 91 257 3.0 9.0 0.00 0.00 0.00 69 1013.4
20260902224027 91 229 3.0 9.0 0.00 0.00 0.00 70 1013.5
20260902223939 91 238 3.0 9.0 0.00 0.00 0.00 69 1013.3
20260902223832 91 254 4.0 9.0 0.00 0.00 0.00 69 1013.4
20260902223743 91 236 4.0 9.0 0.00 0.00 0.00 69 1013.5
20260902223658 92 222 3.0 8.0 0.00 0.00 0.00 69 1013.4
20260902223528 92 246 3.0 8.0 0.00 0.00 0.00 69 1013.4
20260902223440 92 201 3.0 8.0 0.00 0.00 0.00 69 1013.4
20260902223332 92 242 3.0 8.0 0.00 0.00 0.00 69 1013.5
20260902223243 92 243 3.0 8.0 0.00 0.00 0.00 68 1013.5
20260902223206 92 157 3.0 11.0 0.00 0.00 0.00 68 1013.5
20260902223035 92 241 3.0 11.0 0.00 0.00 0.00 69 1013.5
20260902222947 92 258 3.0 11.0 0.00 0.00 0.00 69 1013.5
20260902222858 92 221 4.0 11.0 0.00 0.00 0.00 69 1013.5
20260902222747 92 245 4.0 11.0 0.00 0.00 0.00 69 1013.5
20260902222659 92 237 3.0 11.0 0.00 0.00 0.00 68 1013.5
20260902222535 92 228 5.0 11.0 0.00 0.00 0.00 68 1013.5
20260902222447 92 233 5.0 11.0 0.00 0.00 0.00 68 1013.5
20260902222400 92 219 3.0 11.0 0.00 0.00 0.00 68 1013.5
20260902222230 92 317 3.0 7.0 0.00 0.00 0.00 69 1013.5
20260902222122 92 200 4.0 7.0 0.00 0.00 0.00 68 1013.5
20260902222034 92 246 3.0 7.0 0.00 0.00 0.00 69 1013.6
20260902221925 92 244 3.0 8.0 0.00 0.00 0.00 69 1013.5
20260902221836 92 250 3.0 8.0 0.00 0.00 0.00 68 1013.6
20260902221728 92 236 4.0 8.0 0.00 0.00 0.00 68 1013.5
20260902221653 92 223 3.0 8.0 0.00 0.00 0.00 68 1013.5
20260902221524 92 275 2.0 8.0 0.00 0.00 0.00 69 1013.5
20260902221436 92 251 3.0 8.0 0.00 0.00 0.00 69 1013.5
20260902221328 92 217 3.0 8.0 0.00 0.00 0.00 69 1013.5
20260902221241 92 252 3.0 8.0 0.00 0.00 0.00 69 1013.5
20260902221133 92 246 3.0 8.0 0.00 0.00 0.00 69 1013.5
20260902221046 93 230 3.0 5.0 0.00 0.00 0.00 69 1013.5
20260902220935 93 239 3.0 9.0 0.00 0.00 0.00 69 1013.6
20260902220826 93 263 2.0 9.0 0.00 0.00 0.00 68 1013.6
20260902220723 92 242 2.0 9.0 0.00 0.00 0.00 68 1013.5
20260902220633 92 221 3.0 9.0 0.00 0.00 0.00 68 1013.5
20260902220524 92 171 3.0 9.0 0.00 0.00 0.00 68 1013.4
20260902220436 92 234 3.0 9.0 0.00 0.00 0.00 68 1013.5
20260902220351 92 135 2.0 9.0 0.00 0.00 0.00 68 1013.5
20260902220239 92 269 3.0 9.0 0.00 0.00 0.00 68 1013.5
20260902220200 92 64 3.0 9.0 0.00 0.00 0.00 68 1013.5
20260902220051 92 259 2.0 7.0 0.00 0.00 0.00 68 1013.6
20260902220003 93 266 2.0 7.0 0.00 0.00 0.00 69 1013.6
20260902215854 93 259 3.0 7.0 0.00 0.00 0.00 69 1013.6
20260902215728 92 246 3.0 7.0 0.00 0.00 0.00 68 1013.5
20260902215639 93 240 3.0 7.0 0.00 0.00 0.00 68 1013.6
20260902215532 93 198 4.0 7.0 0.00 0.00 0.00 68 1013.5
20260902215444 93 222 4.0 7.0 0.00 0.00 0.00 68 1013.6
20260902215356 93 242 3.0 7.0 0.00 0.00 0.00 68 1013.6
20260902215247 93 242 3.0 7.0 0.00 0.00 0.00 68 1013.5
20260902215137 93 225 4.0 7.0 0.00 0.00 0.00 67 1013.5
20260902215030 93 240 4.0 7.0 0.00 0.00 0.00 67 1013.5
20260902214942 93 212 3.0 7.0 0.00 0.00 0.00 68 1013.5
20260902214833 93 45 3.0 7.0 0.00 0.00 0.00 67 1013.5
20260902214756 93 234 3.0 9.0 0.00 0.00 0.00 67 1013.5
20260902214650 93 210 3.0 9.0 0.00 0.00 0.00 67 1013.5
20260902214540 93 227 3.0 9.0 0.00 0.00 0.00 67 1013.5
20260902214431 93 246 3.0 9.0 0.00 0.00 0.00 67 1013.5
20260902214340 93 259 4.0 9.0 0.00 0.00 0.00 67 1013.5
20260902214232 93 185 5.0 9.0 0.00 0.00 0.00 66 1013.5
20260902214125 93 231 4.0 9.0 0.00 0.00 0.00 66 1013.5
20260902214036 93 234 4.0 9.0 0.00 0.00 0.00 67 1013.5
20260902213927 93 222 5.0 9.0 0.00 0.00 0.00 66 1013.6
20260902213839 93 218 4.0 9.0 0.00 0.00 0.00 66 1013.6
20260902213754 93 257 3.0 8.0 0.00 0.00 0.00 67 1013.5
20260902213645 93 218 3.0 8.0 0.00 0.00 0.00 67 1013.6
20260902213556 93 227 2.0 6.0 0.00 0.00 0.00 67 1013.7
20260902213426 93 225 2.0 6.0 0.00 0.00 0.00 67 1013.6
20260902213339 93 225 3.0 9.0 0.00 0.00 0.00 67 1013.7
20260902213230 93 240 3.0 9.0 0.00 0.00 0.00 66 1013.5
20260902213153 93 251 3.0 9.0 0.00 0.00 0.00 66 1013.5
20260902213043 93 235 3.0 9.0 0.00 0.00 0.00 66 1013.6
20260902212954 93 247 2.0 9.0 0.00 0.00 0.00 66 1013.6
20260902212824 93 184 3.0 9.0 0.00 0.00 0.00 65 1013.6
20260902212739 93 299 4.0 9.0 0.00 0.00 0.00 65 1013.6
20260902212652 93 207 5.0 9.0 0.00 0.00 0.00 65 1013.6
20260902212523 93 243 4.0 8.0 0.00 0.00 0.00 66 1013.5
20260902212435 93 272 4.0 8.0 0.00 0.00 0.00 66 1013.5
20260902212327 93 272 4.0 8.0 0.00 0.00 0.00 66 1013.6
20260902212238 93 255 3.0 8.0 0.00 0.00 0.00 66 1013.5
20260902212130 93 221 3.0 9.0 0.00 0.00 0.00 66 1013.5
20260902212043 93 211 2.0 9.0 0.00 0.00 0.00 66 1013.6
20260902211954 93 242 3.0 9.0 0.00 0.00 0.00 67 1013.6
20260902211906 93 259 3.0 9.0 0.00 0.00 0.00 66 1013.5
20260902211823 93 236 2.0 9.0 0.00 0.00 0.00 66 1013.5
20260902211722 93 245 3.0 9.0 0.00 0.00 0.00 66 1013.5
20260902211533 93 269 4.0 9.0 0.00 0.00 0.00 65 1013.5
20260902211425 93 242 5.0 9.0 0.00 0.00 0.00 66 1013.7
20260902211337 93 251 4.0 9.0 0.00 0.00 0.00 66 1013.5
20260902211229 93 254 3.0 9.0 0.00 0.00 0.00 69 1013.6
20260902211141 93 263 2.0 5.0 0.00 0.00 0.00 69 1013.6
20260902211032 93 284 2.0 7.0 0.00 0.00 0.00 68 1013.5
20260902210943 93 119 2.0 7.0 0.00 0.00 0.00 68 1013.5
20260902210859 93 237 2.0 8.0 0.00 0.00 0.00 68 1013.5
20260902210730 93 152 2.0 8.0 0.00 0.00 0.00 67 1013.6
20260902210642 93 255 2.0 8.0 0.00 0.00 0.00 68 1013.6
20260902210556 93 159 1.0 8.0 0.00 0.00 0.00 69 1013.7
20260902210426 93 167 2.0 9.0 0.00 0.00 0.00 68 1013.7
20260902210338 93 225 2.0 9.0 0.00 0.00 0.00 68 1013.6
20260902210227 93 175 2.0 9.0 0.00 0.00 0.00 67 1013.6
20260902210150 93 237 3.0 9.0 0.00 0.00 0.00 67 1013.6
20260902210040 93 223 4.0 9.0 0.00 0.00 0.00 66 1013.7
20260902205951 93 202 3.0 9.0 0.00 0.00 0.00 66 1013.7
20260902205846 93 249 4.0 9.0 0.00 0.00 0.00 67 1013.7
20260902205759 93 187 3.0 9.0 0.00 0.00 0.00 66 1013.8
20260902205649 93 140 3.0 9.0 0.00 0.00 0.00 66 1013.7
20260902205600 93 98 3.0 7.0 0.00 0.00 0.00 66 1013.7
20260902205511 93 258 2.0 7.0 0.00 0.00 0.00 66 1013.8
20260902205402 93 184 2.0 7.0 0.00 0.00 0.00 66 1013.8
20260902205253 93 153 3.0 7.0 0.00 0.00 0.00 66 1013.8
20260902205205 93 94 3.0 7.0 0.00 0.00 0.00 66 1013.8
20260902205035 93 275 3.0 7.0 0.00 0.00 0.00 66 1013.9
20260902204925 93 202 4.0 7.0 0.00 0.00 0.00 66 1013.8
20260902204837 93 247 3.0 8.0 0.00 0.00 0.00 66 1013.9
20260902204749 93 168 3.0 8.0 0.00 0.00 0.00 66 1013.9
20260902204715 93 300 3.0 8.0 0.00 0.00 0.00 66 1013.9
20260902204524 93 228 3.0 8.0 0.00 0.00 0.00 67 1013.9
20260902204435 93 237 4.0 8.0 0.00 0.00 0.00 67 1013.9
20260902204327 93 238 3.0 8.0 0.00 0.00 0.00 67 1013.9
20260902204239 93 215 2.0 8.0 0.00 0.00 0.00 69 1013.9
20260902204131 93 144 2.0 8.0 0.00 0.00 0.00 69 1013.9
20260902204042 93 247 2.0 8.0 0.00 0.00 0.00 69 1013.9
20260902203954 93 113 2.0 8.0 0.00 0.00 0.00 67 1013.9
20260902203846 93 276 2.0 8.0 0.00 0.00 0.00 67 1013.9
20260902203721 93 128 3.0 8.0 0.00 0.00 0.00 67 1013.9
20260902203633 93 234 4.0 8.0 0.00 0.00 0.00 66 1013.9
20260902203545 93 261 3.0 6.0 0.00 0.00 0.00 66 1014.0
20260902203457 93 237 3.0 6.0 0.00 0.00 0.00 67 1013.9
20260902203328 93 278 3.0 7.0 0.00 0.00 0.00 67 1013.9
20260902203237 93 29 2.0 7.0 0.00 0.00 0.00 67 1014.0
20260902203159 93 187 3.0 7.0 0.00 0.00 0.00 66 1014.0
20260902203031 93 215 4.0 7.0 0.00 0.00 0.00 66 1014.0
20260902202942 93 211 3.0 7.0 0.00 0.00 0.00 67 1014.0
20260902202854 93 238 2.0 7.0 0.00 0.00 0.00 66 1014.0
20260902202730 93 265 3.0 7.0 0.00 0.00 0.00 66 1014.0
20260902202641 93 248 2.0 7.0 0.00 0.00 0.00 66 1014.0
20260902202533 93 189 3.0 7.0 0.00 0.00 0.00 66 1014.1
20260902202424 93 223 3.0 7.0 0.00 0.00 0.00 66 1014.1
20260902202336 93 240 3.0 5.0 0.00 0.00 0.00 65 1014.0
20260902202227 93 153 2.0 5.0 0.00 0.00 0.00 67 1014.1
20260902202138 93 264 2.0 5.0 0.00 0.00 0.00 67 1014.2
20260902202030 93 243 2.0 5.0 0.00 0.00 0.00 67 1014.2
20260902201943 93 203 2.0 7.0 0.00 0.00 0.00 67 1014.3
20260902201858 93 246 3.0 7.0 0.00 0.00 0.00 68 1014.2
20260902201730 93 232 2.0 7.0 0.00 0.00 0.00 68 1014.2
20260902201651 93 234 2.0 7.0 0.00 0.00 0.00 68 1014.2
20260902201542 93 175 2.0 7.0 0.00 0.00 0.00 68 1014.3
20260902201454 93 90 2.0 7.0 0.00 0.00 0.00 68 1014.3
20260902201325 93 205 2.0 7.0 0.00 0.00 0.00 68 1014.3
20260902201236 93 282 2.0 7.0 0.00 0.00 0.00 68 1014.3
20260902201128 93 261 2.0 7.0 0.00 0.00 0.00 68 1014.3
20260902201040 93 170 2.0 7.0 0.00 0.00 0.00 68 1014.4
20260902200935 93 279 2.0 7.0 0.00 0.00 0.00 68 1014.4
20260902200847 93 157 2.0 7.0 0.00 0.00 0.00 67 1014.3
20260902200738 93 279 1.0 5.0 0.00 0.00 0.00 68 1014.4
20260902200631 93 150 1.0 5.0 0.00 0.00 0.00 69 1014.4
20260902200522 93 186 2.0 5.0 0.00 0.00 0.00 67 1014.5
20260902200433 93 229 3.0 5.0 0.00 0.00 0.00 68 1014.5
20260902200324 93 279 2.0 5.0 0.00 0.00 0.00 69 1014.4
20260902200234 93 224 2.0 5.0 0.00 0.00 0.00 68 1014.4
20260902200157 93 160 2.0 5.0 0.00 0.00 0.00 69 1014.4
20260902200027 93 142 2.0 5.0 0.00 0.00 0.00 68 1014.5
20260902195924 93 279 2.0 5.0 0.00 0.00 0.00 68 1014.5
20260902195836 93 265 2.0 5.0 0.00 0.00 0.00 68 1014.6
20260902195729 93 162 1.0 5.0 0.00 0.00 0.00 69 1014.5
20260902195640 93 130 2.0 5.0 0.00 0.00 0.00 69 1014.6
20260902195552 93 146 2.0 5.0 0.00 0.00 0.00 69 1014.6
20260902195444 93 169 2.0 6.0 0.00 0.00 0.00 69 1014.6
20260902195336 93 125 1.0 5.0 0.00 0.00 0.00 70 1014.6
20260902195249 92 237 2.0 5.0 0.00 0.00 0.00 69 1014.7
20260902195141 93 161 3.0 5.0 0.00 0.00 0.00 69 1014.7
20260902195032 92 149 3.0 7.0 0.00 0.00 0.00 69 1014.7
20260902194927 92 259 2.0 7.0 0.00 0.00 0.00 68 1014.7
20260902194840 92 198 2.0 7.0 0.00 0.00 0.00 69 1014.6
20260902194732 92 234 2.0 7.0 0.00 0.00 0.00 69 1014.7
20260902194653 92 234 2.0 7.0 0.00 0.00 0.00 69 1014.7
20260902194525 92 239 2.0 7.0 0.00 0.00 0.00 69 1014.8
20260902194437 92 241 2.0 7.0 0.00 0.00 0.00 68 1014.8
20260902194350 92 229 3.0 7.0 0.00 0.00 0.00 68 1014.8
20260902194221 92 228 3.0 7.0 0.00 0.00 0.00 68 1014.9
20260902194133 92 246 2.0 6.0 0.00 0.00 0.00 67 1014.8
20260902194050 92 178 2.0 6.0 0.00 0.00 0.00 67 1014.9
20260902193940 92 239 3.0 6.0 0.00 0.00 0.00 67 1015.0
20260902193832 92 194 3.0 6.0 0.00 0.00 0.00 67 1015.0
20260902193744 92 266 3.0 7.0 0.00 0.00 0.00 68 1015.0
20260902193635 92 242 3.0 4.0 0.00 0.00 0.00 68 1015.0
20260902193527 92 231 3.0 4.0 0.00 0.00 0.00 68 1015.0